Observation data for Bootleg on 05/26/2019      Previous  Date  Next       Current Mesonet Observations  Soil Data  Daily Summary Page  Observations in Plain Language
KBO1 260500Z 19008KT 18/18 A3003 RMK A01 T01800176  RH  098%=      5-min Rain = 0
KBO1 260501Z 19009KT 18/18 A3003 RMK A01 T01800176  RH  098%=      5-min Rain = 0
KBO1 260502Z 19009KT 18/18 A3003 RMK A01 T01800177  RH  098%=      5-min Rain = 0
KBO1 260503Z 18008KT 18/18 A3002 RMK A01 T01800177  RH  098%=      5-min Rain = 0
KBO1 260504Z 18008KT 18/18 A3002 RMK A01 T01800176  RH  097%=      5-min Rain = 0
KBO1 260505Z 19008KT 18/18 A3002 RMK A01 T01800176  RH  097%=      5-min Rain = 0
KBO1 260506Z 19008KT 18/18 A3003 RMK A01 T01790176  RH  098%=      5-min Rain = 0
KBO1 260507Z 19007KT 18/18 A3003 RMK A01 T01790176  RH  098%=      5-min Rain = 0
KBO1 260508Z 19008KT 18/18 A3003 RMK A01 T01790176  RH  098%=      5-min Rain = 0
KBO1 260509Z 19009KT 18/18 A3003 RMK A01 T01790176  RH  098%=      5-min Rain = 0
KBO1 260510Z 19009KT 18/18 A3003 RMK A01 T01790176  RH  098%=      5-min Rain = 0
KBO1 260511Z 19009KT 18/18 A3003 RMK A01 T01800176  RH  098%=      5-min Rain = 0
KBO1 260512Z 19010KT 18/18 A3003 RMK A01 T01790176  RH  098%=      5-min Rain = 0
KBO1 260513Z 18010KT 18/18 A3003 RMK A01 T01790176  RH  098%=      5-min Rain = 0
KBO1 260514Z 18010KT 18/18 A3002 RMK A01 T01800176  RH  098%=      5-min Rain = 0
KBO1 260515Z 18009KT 18/18 A3002 RMK A01 T01800176  RH  098%=      5-min Rain = 0
KBO1 260516Z 18009KT 18/18 A3002 RMK A01 T01790176  RH  098%=      5-min Rain = 0
KBO1 260517Z 18009KT 18/18 A3002 RMK A01 T01790176  RH  098%=      5-min Rain = 0
KBO1 260518Z 18010KT 18/18 A3002 RMK A01 T01790176  RH  098%=      5-min Rain = 0
KBO1 260519Z 18010KT 18/18 A3002 RMK A01 T01790176  RH  098%=      5-min Rain = 0
KBO1 260520Z 17010KT 18/18 A3002 RMK A01 T01790176  RH  098%=      5-min Rain = 0
KBO1 260521Z 18010KT 18/18 A3002 RMK A01 T01790176  RH  098%=      5-min Rain = 0
KBO1 260522Z 18010KT 18/18 A3002 RMK A01 T01790176  RH  098%=      5-min Rain = 0
KBO1 260523Z 18011KT 18/18 A3002 RMK A01 T01790176  RH  098%=      5-min Rain = 0
KBO1 260524Z 18010KT 18/18 A3002 RMK A01 T01790176  RH  098%=      5-min Rain = 0
KBO1 260525Z 18010KT 18/18 A3002 RMK A01 T01800175  RH  097%=      5-min Rain = 0
KBO1 260526Z 18009KT 18/18 A3002 RMK A01 T01800175  RH  097%=      5-min Rain = 0
KBO1 260527Z 18010KT 18/18 A3002 RMK A01 T01800175  RH  097%=      5-min Rain = 0
KBO1 260528Z 18010KT 18/18 A3002 RMK A01 T01800175  RH  097%=      5-min Rain = 0
KBO1 260529Z 18011KT 18/18 A3002 RMK A01 T01800175  RH  097%=      5-min Rain = 0
KBO1 260530Z 18011KT 18/18 A3002 RMK A01 T01800175  RH  097%=      5-min Rain = 0
KBO1 260531Z 18011KT 18/18 A3002 RMK A01 T01800175  RH  097%=      5-min Rain = 0
KBO1 260532Z 18011KT 18/18 A3002 RMK A01 T01800175  RH  097%=      5-min Rain = 0
KBO1 260533Z 18011KT 18/18 A3002 RMK A01 T01800175  RH  097%=      5-min Rain = 0
KBO1 260534Z 18011KT 18/18 A3002 RMK A01 T01790175  RH  097%=      5-min Rain = 0
KBO1 260535Z 18010KT 18/17 A3002 RMK A01 T01790174  RH  097%=      5-min Rain = 0
KBO1 260536Z 18010KT 18/17 A3002 RMK A01 T01790174  RH  097%=      5-min Rain = 0
KBO1 260537Z 18010KT 18/17 A3002 RMK A01 T01790174  RH  097%=      5-min Rain = 0
KBO1 260538Z 18010KT 18/17 A3002 RMK A01 T01790174  RH  097%=      5-min Rain = 0
KBO1 260539Z 18011KT 18/17 A3002 RMK A01 T01790174  RH  097%=      5-min Rain = 0
KBO1 260540Z 18011KT 18/17 A3002 RMK A01 T01790174  RH  097%=      5-min Rain = 0
KBO1 260541Z 18011KT 18/17 A3002 RMK A01 T01790174  RH  097%=      5-min Rain = 0
KBO1 260542Z 18010KT 18/17 A3002 RMK A01 T01790174  RH  097%=      5-min Rain = 0
KBO1 260543Z 18010KT 18/17 A3002 RMK A01 T01790174  RH  097%=      5-min Rain = 0
KBO1 260544Z 18011KT 18/17 A3002 RMK A01 T01790174  RH  097%=      5-min Rain = 0
KBO1 260545Z 18011KT 18/17 A3002 RMK A01 T01790174  RH  097%=      5-min Rain = 0
KBO1 260546Z 18011KT 18/17 A3002 RMK A01 T01790174  RH  097%=      5-min Rain = 0
KBO1 260547Z 18012KT 18/17 A3002 RMK A01 T01780174  RH  097%=      5-min Rain = 0
KBO1 260548Z 18011KT 18/17 A3002 RMK A01 T01790174  RH  097%=      5-min Rain = 0
KBO1 260549Z 18012KT 18/17 A3002 RMK A01 T01790174  RH  097%=      5-min Rain = 0
KBO1 260550Z 18012KT 18/17 A3002 RMK A01 T01800174  RH  097%=      5-min Rain = 0
KBO1 260551Z 18013KT 18/18 A3001 RMK A01 T01810175  RH  096%=      5-min Rain = 0
KBO1 260552Z 18012KT 18/17 A3002 RMK A01 T01810174  RH  096%=      5-min Rain = 0
KBO1 260553Z 19011KT 18/17 A3002 RMK A01 T01820174  RH  095%=      5-min Rain = 0
KBO1 260554Z 19012KT 18/17 A3002 RMK A01 T01820174  RH  095%=      5-min Rain = 0
KBO1 260555Z 19012KT 18/17 A3002 RMK A01 T01820174  RH  095%=      5-min Rain = 0
KBO1 260556Z 19012KT 18/17 A3002 RMK A01 T01820174  RH  095%=      5-min Rain = 0
KBO1 260557Z 19010KT 18/17 A3002 RMK A01 T01820174  RH  095%=      5-min Rain = 0
KBO1 260558Z 19011KT 18/17 A3002 RMK A01 T01820173  RH  095%=      5-min Rain = 0
KBO1 260559Z 19011KT 18/17 A3002 RMK A01 T01820174  RH  095%=      5-min Rain = 0
KBO1 260600Z 18012KT 18/17 A3002 RMK A01 T01820174  RH  095%=      5-min Rain = 0
KBO1 260601Z 18014KT 18/17 A3002 RMK A01 T01820174  RH  095%=      5-min Rain = 0
KBO1 260602Z 19014KT 18/17 A3002 RMK A01 T01820174  RH  095%=      5-min Rain = 0
KBO1 260603Z 19011KT 18/17 A3002 RMK A01 T01830174  RH  094%=      5-min Rain = 0
KBO1 260604Z 19012KT 18/17 A3002 RMK A01 T01830173  RH  094%=      5-min Rain = 0
KBO1 260605Z 19012KT 18/17 A3002 RMK A01 T01830174  RH  095%=      5-min Rain = 0
KBO1 260606Z 19012KT 18/17 A3002 RMK A01 T01820173  RH  095%=      5-min Rain = 0
KBO1 260607Z 19012KT 18/17 A3002 RMK A01 T01820173  RH  095%=      5-min Rain = 0
KBO1 260608Z 18013KT 18/17 A3002 RMK A01 T01820173  RH  095%=      5-min Rain = 0
KBO1 260609Z 18011KT 18/17 A3002 RMK A01 T01820173  RH  095%=      5-min Rain = 0
KBO1 260610Z 19012KT 18/17 A3002 RMK A01 T01820173  RH  095%=      5-min Rain = 0
KBO1 260611Z 19012KT 18/17 A3002 RMK A01 T01810173  RH  095%=      5-min Rain = 0
KBO1 260612Z 19011KT 18/17 A3002 RMK A01 T01810173  RH  095%=      5-min Rain = 0
KBO1 260613Z 19011KT 18/17 A3002 RMK A01 T01810173  RH  095%=      5-min Rain = 0
KBO1 260614Z 19010KT 18/17 A3002 RMK A01 T01810173  RH  095%=      5-min Rain = 0
KBO1 260615Z 19012KT 18/17 A3002 RMK A01 T01810173  RH  095%=      5-min Rain = 0
KBO1 260616Z 18011KT 18/17 A3002 RMK A01 T01810173  RH  095%=      5-min Rain = 0
KBO1 260617Z 19012KT 18/17 A3002 RMK A01 T01810173  RH  095%=      5-min Rain = 0
KBO1 260618Z 18011KT 18/17 A3002 RMK A01 T01810173  RH  095%=      5-min Rain = 0
KBO1 260619Z 18011KT 18/17 A3002 RMK A01 T01810173  RH  095%=      5-min Rain = 0
KBO1 260620Z 18011KT 18/17 A3002 RMK A01 T01810172  RH  095%=      5-min Rain = 0
KBO1 260621Z 18012KT 18/17 A3002 RMK A01 T01810173  RH  095%=      5-min Rain = 0
KBO1 260622Z 18012KT 18/17 A3002 RMK A01 T01810172  RH  095%=      5-min Rain = 0
KBO1 260623Z 18011KT 18/17 A3002 RMK A01 T01810172  RH  094%=      5-min Rain = 0
KBO1 260624Z 18011KT 18/17 A3002 RMK A01 T01810172  RH  094%=      5-min Rain = 0
KBO1 260625Z 18012KT 18/17 A3002 RMK A01 T01810172  RH  094%=      5-min Rain = 0
KBO1 260626Z 18012KT 18/17 A3002 RMK A01 T01810172  RH  094%=      5-min Rain = 0
KBO1 260627Z 18011KT 18/17 A3002 RMK A01 T01810171  RH  094%=      5-min Rain = 0
KBO1 260628Z 18012KT 18/17 A3002 RMK A01 T01800171  RH  094%=      5-min Rain = 0
KBO1 260629Z 18012KT 18/17 A3002 RMK A01 T01800171  RH  095%=      5-min Rain = 0
KBO1 260630Z 18011KT 18/17 A3002 RMK A01 T01790171  RH  095%=      5-min Rain = 0
KBO1 260631Z 18011KT 18/17 A3002 RMK A01 T01790171  RH  095%=      5-min Rain = 0
KBO1 260632Z 18013KT 18/17 A3002 RMK A01 T01790171  RH  095%=      5-min Rain = 0
KBO1 260633Z 18013KT 18/17 A3002 RMK A01 T01790171  RH  095%=      5-min Rain = 0
KBO1 260634Z 18012KT 18/17 A3002 RMK A01 T01800171  RH  095%=      5-min Rain = 0
KBO1 260635Z 18013KT 18/17 A3002 RMK A01 T01800171  RH  095%=      5-min Rain = 0
KBO1 260636Z 18013KT 18/17 A3002 RMK A01 T01800171  RH  095%=      5-min Rain = 0
KBO1 260637Z 18013KT 18/17 A3002 RMK A01 T01800171  RH  094%=      5-min Rain = 0
KBO1 260638Z 18012KT 18/17 A3002 RMK A01 T01800170  RH  094%=      5-min Rain = 0
KBO1 260639Z 19013KT 18/17 A3001 RMK A01 T01800170  RH  094%=      5-min Rain = 0
KBO1 260640Z 19012KT 18/17 A3002 RMK A01 T01800170  RH  094%=      5-min Rain = 0
KBO1 260641Z 19012KT 18/17 A3001 RMK A01 T01810170  RH  094%=      5-min Rain = 0
KBO1 260642Z 19012KT 18/17 A3001 RMK A01 T01810170  RH  093%=      5-min Rain = 0
KBO1 260643Z 19013KT 18/17 A3001 RMK A01 T01800170  RH  094%=      5-min Rain = 0
KBO1 260644Z 19013KT 18/17 A3001 RMK A01 T01800170  RH  093%=      5-min Rain = 0
KBO1 260645Z 19012KT 18/17 A3001 RMK A01 T01800169  RH  093%=      5-min Rain = 0
KBO1 260646Z 19011KT 18/17 A3001 RMK A01 T01800169  RH  093%=      5-min Rain = 0
KBO1 260647Z 19012KT 18/17 A3002 RMK A01 T01800169  RH  093%=      5-min Rain = 0
KBO1 260648Z 19010KT 18/17 A3001 RMK A01 T01800169  RH  093%=      5-min Rain = 0
KBO1 260649Z 19012KT 18/17 A3001 RMK A01 T01790169  RH  094%=      5-min Rain = 0
KBO1 260650Z 19012KT 18/17 A3001 RMK A01 T01790169  RH  094%=      5-min Rain = 0
KBO1 260651Z 19012KT 18/17 A3001 RMK A01 T01800169  RH  094%=      5-min Rain = 0
KBO1 260652Z 19011KT 18/17 A3001 RMK A01 T01790169  RH  094%=      5-min Rain = 0
KBO1 260653Z 20011KT 18/17 A3001 RMK A01 T01790168  RH  094%=      5-min Rain = 0
KBO1 260654Z 19011KT 18/17 A3002 RMK A01 T01790168  RH  094%=      5-min Rain = 0
KBO1 260655Z 19012KT 18/17 A3002 RMK A01 T01790168  RH  094%=      5-min Rain = 0
KBO1 260656Z 20011KT 18/17 A3002 RMK A01 T01790168  RH  094%=      5-min Rain = 0
KBO1 260657Z 19012KT 18/17 A3002 RMK A01 T01790168  RH  093%=      5-min Rain = 0
KBO1 260658Z 19011KT 18/17 A3002 RMK A01 T01780168  RH  093%=      5-min Rain = 0
KBO1 260659Z 19011KT 18/17 A3002 RMK A01 T01780167  RH  093%=      5-min Rain = 0
KBO1 260700Z 19011KT 18/17 A3002 RMK A01 T01780167  RH  093%=      5-min Rain = 0
KBO1 260701Z 19011KT 18/17 A3002 RMK A01 T01770167  RH  094%=      5-min Rain = 0
KBO1 260702Z 19011KT 18/17 A3002 RMK A01 T01770167  RH  094%=      5-min Rain = 0
KBO1 260703Z 19012KT 18/17 A3002 RMK A01 T01770167  RH  094%=      5-min Rain = 0
KBO1 260704Z 19010KT 18/17 A3002 RMK A01 T01770167  RH  094%=      5-min Rain = 0
KBO1 260705Z 19011KT 18/17 A3002 RMK A01 T01770167  RH  094%=      5-min Rain = 0
KBO1 260706Z 19011KT 18/17 A3002 RMK A01 T01760167  RH  094%=      5-min Rain = 0
KBO1 260707Z 19011KT 18/17 A3002 RMK A01 T01770167  RH  094%=      5-min Rain = 0
KBO1 260708Z 19011KT 18/17 A3002 RMK A01 T01760167  RH  094%=      5-min Rain = 0
KBO1 260709Z 19010KT 18/17 A3002 RMK A01 T01760166  RH  094%=      5-min Rain = 0
KBO1 260710Z 19011KT 18/17 A3002 RMK A01 T01750166  RH  094%=      5-min Rain = 0
KBO1 260711Z 19011KT 18/17 A3002 RMK A01 T01750166  RH  094%=      5-min Rain = 0
KBO1 260712Z 19010KT 18/17 A3002 RMK A01 T01750166  RH  094%=      5-min Rain = 0
KBO1 260713Z 19011KT 18/17 A3002 RMK A01 T01750166  RH  094%=      5-min Rain = 0
KBO1 260714Z 19010KT 18/17 A3002 RMK A01 T01750165  RH  094%=      5-min Rain = 0
KBO1 260715Z 20012KT 18/17 A3002 RMK A01 T01750166  RH  094%=      5-min Rain = 0
KBO1 260716Z 20011KT 18/17 A3002 RMK A01 T01760165  RH  093%=      5-min Rain = 0
KBO1 260717Z 20011KT 18/17 A3002 RMK A01 T01760165  RH  093%=      5-min Rain = 0
KBO1 260718Z 19010KT 18/17 A3002 RMK A01 T01760165  RH  093%=      5-min Rain = 0
KBO1 260719Z 19010KT 18/17 A3002 RMK A01 T01750165  RH  093%=      5-min Rain = 0
KBO1 260720Z 19010KT 18/17 A3002 RMK A01 T01750165  RH  093%=      5-min Rain = 0
KBO1 260721Z 19011KT 18/16 A3002 RMK A01 T01750164  RH  094%=      5-min Rain = 0
KBO1 260722Z 19011KT 18/16 A3002 RMK A01 T01750164  RH  094%=      5-min Rain = 0
KBO1 260723Z 19010KT 18/16 A3002 RMK A01 T01750164  RH  093%=      5-min Rain = 0
KBO1 260724Z 19011KT 18/16 A3002 RMK A01 T01750164  RH  093%=      5-min Rain = 0
KBO1 260725Z 20011KT 18/16 A3002 RMK A01 T01750164  RH  093%=      5-min Rain = 0
KBO1 260726Z 19010KT 18/16 A3002 RMK A01 T01750164  RH  093%=      5-min Rain = 0
KBO1 260727Z 20010KT 18/16 A3002 RMK A01 T01750164  RH  093%=      5-min Rain = 0
KBO1 260728Z 20011KT 17/16 A3002 RMK A01 T01740163  RH  093%=      5-min Rain = 0
KBO1 260729Z 20010KT 18/16 A3002 RMK A01 T01750163  RH  093%=      5-min Rain = 0
KBO1 260730Z 19011KT 18/16 A3002 RMK A01 T01750163  RH  093%=      5-min Rain = 0
KBO1 260731Z 20010KT 18/16 A3002 RMK A01 T01750163  RH  093%=      5-min Rain = 0
KBO1 260732Z 19010KT 17/16 A3002 RMK A01 T01740162  RH  093%=      5-min Rain = 0
KBO1 260733Z 19011KT 17/16 A3002 RMK A01 T01740162  RH  093%=      5-min Rain = 0
KBO1 260734Z 19010KT 17/16 A3002 RMK A01 T01730162  RH  093%=      5-min Rain = 0
KBO1 260735Z 19010KT 17/16 A3002 RMK A01 T01730162  RH  093%=      5-min Rain = 0
KBO1 260736Z 19009KT 17/16 A3002 RMK A01 T01730162  RH  093%=      5-min Rain = 0
KBO1 260737Z 19010KT 17/16 A3002 RMK A01 T01730161  RH  093%=      5-min Rain = 0
KBO1 260738Z 18009KT 17/16 A3002 RMK A01 T01720161  RH  093%=      5-min Rain = 0
KBO1 260739Z 19009KT 17/16 A3002 RMK A01 T01720161  RH  093%=      5-min Rain = 0
KBO1 260740Z 19010KT 17/16 A3002 RMK A01 T01710161  RH  094%=      5-min Rain = 0
KBO1 260741Z 19010KT 17/16 A3002 RMK A01 T01710161  RH  094%=      5-min Rain = 0
KBO1 260742Z 19009KT 17/16 A3002 RMK A01 T01710161  RH  094%=      5-min Rain = 0
KBO1 260743Z 18009KT 17/16 A3002 RMK A01 T01710161  RH  094%=      5-min Rain = 0
KBO1 260744Z 19009KT 17/16 A3002 RMK A01 T01700161  RH  094%=      5-min Rain = 0
KBO1 260745Z 19009KT 17/16 A3002 RMK A01 T01700161  RH  094%=      5-min Rain = 0
KBO1 260746Z 19008KT 17/16 A3002 RMK A01 T01700161  RH  094%=      5-min Rain = 0
KBO1 260747Z 18008KT 17/16 A3002 RMK A01 T01700160  RH  094%=      5-min Rain = 0
KBO1 260748Z 18008KT 17/16 A3002 RMK A01 T01690160  RH  094%=      5-min Rain = 0
KBO1 260749Z 18008KT 17/16 A3002 RMK A01 T01690160  RH  094%=      5-min Rain = 0
KBO1 260750Z 18008KT 17/16 A3002 RMK A01 T01680160  RH  095%=      5-min Rain = 0
KBO1 260751Z 18008KT 17/16 A3002 RMK A01 T01680160  RH  095%=      5-min Rain = 0
KBO1 260752Z 18008KT 17/16 A3002 RMK A01 T01680160  RH  095%=      5-min Rain = 0
KBO1 260753Z 18008KT 17/16 A3002 RMK A01 T01680160  RH  095%=      5-min Rain = 0
KBO1 260754Z 18008KT 17/16 A3002 RMK A01 T01670160  RH  095%=      5-min Rain = 0
KBO1 260755Z 18007KT 17/16 A3002 RMK A01 T01670160  RH  095%=      5-min Rain = 0
KBO1 260756Z 18007KT 17/16 A3002 RMK A01 T01670159  RH  095%=      5-min Rain = 0
KBO1 260757Z 18008KT 17/16 A3002 RMK A01 T01660159  RH  095%=      5-min Rain = 0
KBO1 260758Z 18008KT 17/16 A3002 RMK A01 T01660159  RH  096%=      5-min Rain = 0
KBO1 260759Z 18007KT 17/16 A3002 RMK A01 T01650159  RH  096%=      5-min Rain = 0
KBO1 260800Z 18007KT 17/16 A3002 RMK A01 T01650159  RH  096%=      5-min Rain = 0
KBO1 260801Z 18007KT 17/16 A3003 RMK A01 T01650159  RH  096%=      5-min Rain = 0
KBO1 260802Z 19008KT 16/16 A3003 RMK A01 T01640159  RH  096%=      5-min Rain = 0
KBO1 260803Z 19008KT 16/16 A3003 RMK A01 T01640158  RH  097%=      5-min Rain = 0
KBO1 260804Z 19007KT 16/16 A3003 RMK A01 T01640158  RH  097%=      5-min Rain = 0
KBO1 260805Z 19007KT 16/16 A3003 RMK A01 T01640158  RH  097%=      5-min Rain = 0
KBO1 260806Z 19008KT 16/16 A3003 RMK A01 T01640158  RH  097%=      5-min Rain = 0
KBO1 260807Z 19008KT 16/16 A3003 RMK A01 T01630158  RH  097%=      5-min Rain = 0
KBO1 260808Z 19008KT 16/16 A3003 RMK A01 T01630157  RH  097%=      5-min Rain = 0
KBO1 260809Z 19008KT 16/16 A3003 RMK A01 T01620157  RH  097%=      5-min Rain = 0
KBO1 260810Z 19007KT 16/16 A3003 RMK A01 T01620157  RH  097%=      5-min Rain = 0
KBO1 260811Z 19007KT 16/16 A3003 RMK A01 T01620157  RH  097%=      5-min Rain = 0
KBO1 260812Z 19007KT 16/16 A3003 RMK A01 T01620157  RH  097%=      5-min Rain = 0
KBO1 260813Z 19007KT 16/16 A3003 RMK A01 T01610157  RH  097%=      5-min Rain = 0
KBO1 260814Z 19007KT 16/16 A3003 RMK A01 T01610157  RH  097%=      5-min Rain = 0
KBO1 260815Z 19008KT 16/16 A3003 RMK A01 T01610157  RH  097%=      5-min Rain = 0
KBO1 260816Z 19007KT 16/16 A3002 RMK A01 T01610156  RH  097%=      5-min Rain = 0
KBO1 260817Z 19007KT 16/16 A3002 RMK A01 T01600156  RH  097%=      5-min Rain = 0
KBO1 260818Z 18007KT 16/16 A3002 RMK A01 T01600156  RH  097%=      5-min Rain = 0
KBO1 260819Z 19007KT 16/16 A3002 RMK A01 T01600155  RH  097%=      5-min Rain = 0
KBO1 260820Z 18007KT 16/16 A3002 RMK A01 T01600155  RH  097%=      5-min Rain = 0
KBO1 260821Z 18007KT 16/16 A3002 RMK A01 T01590155  RH  097%=      5-min Rain = 0
KBO1 260822Z 18007KT 16/16 A3002 RMK A01 T01590155  RH  098%=      5-min Rain = 0
KBO1 260823Z 18007KT 16/16 A3002 RMK A01 T01590155  RH  098%=      5-min Rain = 0
KBO1 260824Z 18007KT 16/15 A3002 RMK A01 T01580154  RH  098%=      5-min Rain = 0
KBO1 260825Z 18007KT 16/15 A3002 RMK A01 T01580154  RH  098%=      5-min Rain = 0
KBO1 260826Z 18007KT 16/16 A3002 RMK A01 T01580155  RH  098%=      5-min Rain = 0
KBO1 260827Z 18007KT 16/15 A3002 RMK A01 T01580154  RH  098%=      5-min Rain = 0
KBO1 260828Z 18006KT 16/15 A3002 RMK A01 T01570154  RH  098%=      5-min Rain = 0
KBO1 260829Z 18006KT 16/15 A3002 RMK A01 T01570154  RH  098%=      5-min Rain = 0
KBO1 260830Z 18007KT 16/15 A3002 RMK A01 T01570154  RH  098%=      5-min Rain = 0
KBO1 260831Z 18007KT 16/15 A3002 RMK A01 T01570154  RH  098%=      5-min Rain = 0
KBO1 260832Z 18007KT 16/15 A3002 RMK A01 T01570154  RH  098%=      5-min Rain = 0
KBO1 260833Z 18007KT 16/15 A3002 RMK A01 T01570153  RH  098%=      5-min Rain = 0
KBO1 260834Z 18007KT 16/15 A3002 RMK A01 T01560153  RH  098%=      5-min Rain = 0
KBO1 260835Z 18008KT 16/15 A3002 RMK A01 T01570153  RH  098%=      5-min Rain = 0
KBO1 260836Z 18008KT 16/15 A3002 RMK A01 T01560152  RH  098%=      5-min Rain = 0
KBO1 260837Z 18008KT 16/15 A3002 RMK A01 T01560152  RH  098%=      5-min Rain = 0
KBO1 260838Z 19008KT 16/15 A3002 RMK A01 T01550152  RH  098%=      5-min Rain = 0
KBO1 260839Z 19008KT 16/15 A3002 RMK A01 T01550152  RH  098%=      5-min Rain = 0
KBO1 260840Z 19009KT 16/15 A3002 RMK A01 T01550152  RH  098%=      5-min Rain = 0
KBO1 260841Z 19009KT 16/15 A3002 RMK A01 T01550152  RH  098%=      5-min Rain = 0
KBO1 260842Z 19009KT 16/15 A3002 RMK A01 T01560152  RH  098%=      5-min Rain = 0
KBO1 260843Z 19009KT 16/15 A3002 RMK A01 T01560152  RH  097%=      5-min Rain = 0
KBO1 260844Z 19009KT 16/15 A3002 RMK A01 T01570152  RH  097%=      5-min Rain = 0
KBO1 260845Z 19009KT 16/15 A3002 RMK A01 T01570152  RH  097%=      5-min Rain = 0
KBO1 260846Z 19009KT 16/15 A3002 RMK A01 T01570152  RH  097%=      5-min Rain = 0
KBO1 260847Z 19009KT 16/15 A3002 RMK A01 T01570152  RH  097%=      5-min Rain = 0
KBO1 260848Z 19009KT 16/15 A3002 RMK A01 T01570152  RH  097%=      5-min Rain = 0
KBO1 260849Z 19009KT 16/15 A3002 RMK A01 T01570152  RH  097%=      5-min Rain = 0
KBO1 260850Z 19009KT 16/15 A3002 RMK A01 T01570152  RH  097%=      5-min Rain = 0
KBO1 260851Z 19009KT 16/15 A3002 RMK A01 T01570152  RH  097%=      5-min Rain = 0
KBO1 260852Z 19009KT 16/15 A3002 RMK A01 T01570152  RH  097%=      5-min Rain = 0
KBO1 260853Z 19009KT 16/15 A3002 RMK A01 T01570151  RH  096%=      5-min Rain = 0
KBO1 260854Z 19010KT 16/15 A3002 RMK A01 T01570152  RH  097%=      5-min Rain = 0
KBO1 260855Z 19009KT 16/15 A3002 RMK A01 T01570151  RH  097%=      5-min Rain = 0
KBO1 260856Z 19009KT 16/15 A3002 RMK A01 T01560151  RH  097%=      5-min Rain = 0
KBO1 260857Z 19010KT 16/15 A3002 RMK A01 T01560151  RH  097%=      5-min Rain = 0
KBO1 260858Z 19009KT 16/15 A3002 RMK A01 T01560151  RH  097%=      5-min Rain = 0
KBO1 260859Z 19010KT 16/15 A3002 RMK A01 T01560151  RH  097%=      5-min Rain = 0
KBO1 260900Z 19010KT 16/15 A3002 RMK A01 T01560151  RH  097%=      5-min Rain = 0
KBO1 260901Z 19010KT 16/15 A3002 RMK A01 T01560151  RH  097%=      5-min Rain = 0
KBO1 260902Z 19010KT 16/15 A3002 RMK A01 T01560151  RH  097%=      5-min Rain = 0
KBO1 260903Z 19010KT 16/15 A3002 RMK A01 T01560151  RH  097%=      5-min Rain = 0
KBO1 260904Z 19011KT 16/15 A3002 RMK A01 T01560151  RH  097%=      5-min Rain = 0
KBO1 260905Z 19011KT 16/15 A3002 RMK A01 T01570151  RH  096%=      5-min Rain = 0
KBO1 260906Z 19010KT 16/15 A3002 RMK A01 T01570151  RH  096%=      5-min Rain = 0
KBO1 260907Z 19009KT 16/15 A3002 RMK A01 T01570150  RH  096%=      5-min Rain = 0
KBO1 260908Z 19010KT 16/15 A3002 RMK A01 T01570150  RH  096%=      5-min Rain = 0
KBO1 260909Z 19009KT 16/15 A3002 RMK A01 T01570150  RH  095%=      5-min Rain = 0
KBO1 260910Z 19009KT 16/15 A3002 RMK A01 T01570150  RH  096%=      5-min Rain = 0
KBO1 260911Z 19009KT 16/15 A3002 RMK A01 T01570150  RH  096%=      5-min Rain = 0
KBO1 260912Z 19009KT 16/15 A3002 RMK A01 T01570150  RH  096%=      5-min Rain = 0
KBO1 260913Z 19009KT 16/15 A3002 RMK A01 T01570150  RH  096%=      5-min Rain = 0
KBO1 260914Z 19009KT 16/15 A3002 RMK A01 T01570150  RH  096%=      5-min Rain = 0
KBO1 260915Z 20009KT 16/15 A3002 RMK A01 T01570150  RH  096%=      5-min Rain = 0
KBO1 260916Z 19010KT 16/15 A3002 RMK A01 T01570150  RH  096%=      5-min Rain = 0
KBO1 260917Z 19009KT 16/15 A3002 RMK A01 T01570150  RH  096%=      5-min Rain = 0
KBO1 260918Z 19009KT 16/15 A3002 RMK A01 T01570150  RH  096%=      5-min Rain = 0
KBO1 260919Z 19009KT 16/15 A3002 RMK A01 T01570149  RH  095%=      5-min Rain = 0
KBO1 260920Z 20010KT 16/15 A3002 RMK A01 T01570150  RH  095%=      5-min Rain = 0
KBO1 260921Z 20009KT 16/15 A3002 RMK A01 T01570150  RH  095%=      5-min Rain = 0
KBO1 260922Z 19009KT 16/15 A3002 RMK A01 T01570149  RH  095%=      5-min Rain = 0
KBO1 260923Z 20010KT 16/15 A3002 RMK A01 T01570150  RH  096%=      5-min Rain = 0
KBO1 260924Z 20010KT 16/15 A3002 RMK A01 T01560150  RH  096%=      5-min Rain = 0
KBO1 260925Z 19009KT 16/15 A3002 RMK A01 T01560149  RH  096%=      5-min Rain = 0
KBO1 260926Z 19009KT 16/15 A3002 RMK A01 T01570150  RH  096%=      5-min Rain = 0
KBO1 260927Z 19009KT 16/15 A3003 RMK A01 T01560150  RH  096%=      5-min Rain = 0
KBO1 260928Z 19009KT 16/15 A3003 RMK A01 T01560149  RH  095%=      5-min Rain = 0
KBO1 260929Z 19010KT 16/15 A3003 RMK A01 T01570149  RH  096%=      5-min Rain = 0
KBO1 260930Z 19010KT 16/15 A3003 RMK A01 T01560149  RH  096%=      5-min Rain = 0
KBO1 260931Z 20010KT 16/15 A3003 RMK A01 T01570150  RH  096%=      5-min Rain = 0
KBO1 260932Z 19010KT 16/15 A3003 RMK A01 T01570150  RH  095%=      5-min Rain = 0
KBO1 260933Z 20009KT 16/15 A3003 RMK A01 T01570149  RH  095%=      5-min Rain = 0
KBO1 260934Z 20010KT 16/15 A3002 RMK A01 T01570149  RH  095%=      5-min Rain = 0
KBO1 260935Z 20009KT 16/15 A3002 RMK A01 T01560149  RH  095%=      5-min Rain = 0
KBO1 260936Z 20009KT 16/15 A3002 RMK A01 T01560149  RH  096%=      5-min Rain = 0
KBO1 260937Z 20010KT 16/15 A3002 RMK A01 T01560149  RH  095%=      5-min Rain = 0
KBO1 260938Z 20010KT 16/15 A3002 RMK A01 T01560149  RH  095%=      5-min Rain = 0
KBO1 260939Z 20010KT 16/15 A3002 RMK A01 T01560149  RH  095%=      5-min Rain = 0
KBO1 260940Z 20010KT 16/15 A3002 RMK A01 T01570149  RH  095%=      5-min Rain = 0
KBO1 260941Z 20010KT 16/15 A3002 RMK A01 T01570150  RH  095%=      5-min Rain = 0
KBO1 260942Z 19009KT 16/15 A3002 RMK A01 T01570150  RH  095%=      5-min Rain = 0
KBO1 260943Z 19010KT 16/15 A3002 RMK A01 T01570150  RH  095%=      5-min Rain = 0
KBO1 260944Z 19010KT 16/15 A3002 RMK A01 T01570150  RH  095%=      5-min Rain = 0
KBO1 260945Z 20010KT 16/15 A3002 RMK A01 T01570150  RH  095%=      5-min Rain = 0
KBO1 260946Z 19010KT 16/15 A3002 RMK A01 T01580150  RH  095%=      5-min Rain = 0
KBO1 260947Z 19010KT 16/15 A3002 RMK A01 T01570150  RH  095%=      5-min Rain = 0
KBO1 260948Z 19010KT 16/15 A3002 RMK A01 T01570150  RH  096%=      5-min Rain = 0
KBO1 260949Z 19009KT 16/15 A3002 RMK A01 T01570150  RH  096%=      5-min Rain = 0
KBO1 260950Z 19009KT 16/15 A3002 RMK A01 T01570150  RH  096%=      5-min Rain = 0
KBO1 260951Z 20010KT 16/15 A3002 RMK A01 T01570150  RH  096%=      5-min Rain = 0
KBO1 260952Z 19010KT 16/15 A3002 RMK A01 T01570150  RH  096%=      5-min Rain = 0
KBO1 260953Z 19009KT 16/15 A3002 RMK A01 T01570150  RH  096%=      5-min Rain = 0
KBO1 260954Z 19009KT 16/15 A3002 RMK A01 T01570150  RH  096%=      5-min Rain = 0
KBO1 260955Z 19009KT 16/15 A3002 RMK A01 T01570150  RH  096%=      5-min Rain = 0
KBO1 260956Z 19009KT 16/15 A3002 RMK A01 T01560150  RH  096%=      5-min Rain = 0
KBO1 260957Z 19009KT 16/15 A3002 RMK A01 T01560149  RH  096%=      5-min Rain = 0
KBO1 260958Z 19009KT 16/15 A3002 RMK A01 T01550149  RH  096%=      5-min Rain = 0
KBO1 260959Z 19009KT 16/15 A3002 RMK A01 T01550149  RH  096%=      5-min Rain = 0
KBO1 261000Z 19009KT 16/15 A3002 RMK A01 T01550149  RH  096%=      5-min Rain = 0
KBO1 261001Z 19010KT 16/15 A3002 RMK A01 T01550149  RH  096%=      5-min Rain = 0
KBO1 261002Z 19010KT 15/15 A3002 RMK A01 T01540148  RH  096%=      5-min Rain = 0
KBO1 261003Z 19010KT 15/15 A3002 RMK A01 T01540148  RH  097%=      5-min Rain = 0
KBO1 261004Z 19010KT 15/15 A3002 RMK A01 T01540148  RH  097%=      5-min Rain = 0
KBO1 261005Z 19010KT 15/15 A3002 RMK A01 T01530149  RH  097%=      5-min Rain = 0
KBO1 261006Z 19010KT 15/15 A3002 RMK A01 T01530149  RH  097%=      5-min Rain = 0
KBO1 261007Z 19010KT 15/15 A3002 RMK A01 T01530149  RH  097%=      5-min Rain = 0
KBO1 261008Z 19010KT 15/15 A3002 RMK A01 T01530148  RH  097%=      5-min Rain = 0
KBO1 261009Z 19010KT 15/15 A3002 RMK A01 T01530149  RH  097%=      5-min Rain = 0
KBO1 261010Z 19010KT 15/15 A3002 RMK A01 T01530149  RH  097%=      5-min Rain = 0
KBO1 261011Z 19010KT 15/15 A3002 RMK A01 T01530149  RH  097%=      5-min Rain = 0
KBO1 261012Z 19010KT 15/15 A3002 RMK A01 T01530149  RH  097%=      5-min Rain = 0
KBO1 261013Z 19010KT 15/15 A3002 RMK A01 T01530149  RH  097%=      5-min Rain = 0
KBO1 261014Z 19010KT 15/15 A3002 RMK A01 T01530149  RH  097%=      5-min Rain = 0
KBO1 261015Z 19010KT 15/15 A3002 RMK A01 T01530149  RH  097%=      5-min Rain = 0
KBO1 261016Z 19010KT 15/15 A3002 RMK A01 T01530149  RH  097%=      5-min Rain = 0
KBO1 261017Z 19010KT 15/15 A3002 RMK A01 T01520148  RH  097%=      5-min Rain = 0
KBO1 261018Z 19010KT 15/15 A3002 RMK A01 T01520148  RH  097%=      5-min Rain = 0
KBO1 261019Z 19009KT 15/15 A3002 RMK A01 T01520148  RH  097%=      5-min Rain = 0
KBO1 261020Z 19010KT 15/15 A3002 RMK A01 T01510148  RH  098%=      5-min Rain = 0
KBO1 261021Z 19010KT 15/15 A3002 RMK A01 T01510147  RH  098%=      5-min Rain = 0
KBO1 261022Z 19010KT 15/15 A3002 RMK A01 T01510147  RH  098%=      5-min Rain = 0
KBO1 261023Z 19010KT 15/15 A3002 RMK A01 T01510148  RH  098%=      5-min Rain = 0
KBO1 261024Z 19009KT 15/15 A3002 RMK A01 T01510148  RH  098%=      5-min Rain = 0
KBO1 261025Z 19009KT 15/15 A3002 RMK A01 T01500148  RH  098%=      5-min Rain = 0
KBO1 261026Z 19009KT 15/15 A3002 RMK A01 T01500148  RH  098%=      5-min Rain = 0
KBO1 261027Z 18009KT 15/15 A3002 RMK A01 T01500147  RH  098%=      5-min Rain = 0
KBO1 261028Z 19009KT 15/15 A3002 RMK A01 T01500147  RH  098%=      5-min Rain = 0
KBO1 261029Z 19009KT 15/15 A3002 RMK A01 T01500147  RH  098%=      5-min Rain = 0
KBO1 261030Z 19010KT 15/15 A3002 RMK A01 T01500147  RH  099%=      5-min Rain = 0
KBO1 261031Z 19009KT 15/15 A3002 RMK A01 T01490148  RH  099%=      5-min Rain = 0
KBO1 261032Z 19009KT 15/15 A3002 RMK A01 T01500148  RH  099%=      5-min Rain = 0
KBO1 261033Z 19009KT 15/15 A3002 RMK A01 T01500148  RH  099%=      5-min Rain = 0
KBO1 261034Z 19009KT 15/15 A3002 RMK A01 T01490148  RH  099%=      5-min Rain = 0
KBO1 261035Z 18009KT 15/15 A3002 RMK A01 T01490147  RH  099%=      5-min Rain = 0
KBO1 261036Z 18009KT 15/15 A3002 RMK A01 T01490147  RH  099%=      5-min Rain = 0
KBO1 261037Z 18009KT 15/15 A3002 RMK A01 T01490148  RH  099%=      5-min Rain = 0
KBO1 261038Z 18009KT 15/15 A3002 RMK A01 T01490148  RH  100%=      5-min Rain = 0
KBO1 261039Z 18009KT 15/15 A3002 RMK A01 T01490149  RH  100%=      5-min Rain = 0
KBO1 261040Z 18009KT 15/15 A3002 RMK A01 T01490148  RH  100%=      5-min Rain = 0
KBO1 261041Z 18009KT 15/15 A3002 RMK A01 T01480148  RH  100%=      5-min Rain = 0
KBO1 261042Z 18009KT 15/15 A3002 RMK A01 T01480148  RH  100%=      5-min Rain = 0
KBO1 261043Z 18009KT 15/15 A3002 RMK A01 T01480148  RH  100%=      5-min Rain = 0
KBO1 261044Z 18009KT 15/15 A3002 RMK A01 T01480148  RH  100%=      5-min Rain = 0
KBO1 261045Z 18009KT 15/15 A3002 RMK A01 T01470147  RH  100%=      5-min Rain = 0
KBO1 261046Z 18009KT 15/15 A3002 RMK A01 T01470147  RH  100%=      5-min Rain = 0
KBO1 261047Z 18009KT 15/15 A3002 RMK A01 T01470147  RH  100%=      5-min Rain = 0
KBO1 261048Z 18009KT 15/15 A3002 RMK A01 T01470147  RH  100%=      5-min Rain = 0
KBO1 261049Z 18009KT 15/15 A3002 RMK A01 T01470147  RH  100%=      5-min Rain = 0
KBO1 261050Z 18009KT 15/15 A3002 RMK A01 T01460147  RH  100%=      5-min Rain = 0
KBO1 261051Z 18009KT 15/15 A3002 RMK A01 T01460146  RH  100%=      5-min Rain = 0
KBO1 261052Z 18009KT 15/15 A3002 RMK A01 T01460146  RH  100%=      5-min Rain = 0
KBO1 261053Z 18009KT 15/15 A3002 RMK A01 T01460146  RH  100%=      5-min Rain = 0
KBO1 261054Z 18009KT 15/15 A3002 RMK A01 T01450145  RH  100%=      5-min Rain = 0
KBO1 261055Z 18009KT 15/15 A3002 RMK A01 T01450145  RH  100%=      5-min Rain = 0
KBO1 261056Z 17009KT 15/15 A3002 RMK A01 T01450145  RH  100%=      5-min Rain = 0
KBO1 261057Z 18009KT 15/15 A3002 RMK A01 T01460146  RH  100%=      5-min Rain = 0
KBO1 261058Z 18009KT 15/15 A3002 RMK A01 T01450146  RH  100%=      5-min Rain = 0
KBO1 261059Z 18009KT 15/15 A3002 RMK A01 T01460146  RH  100%=      5-min Rain = 0
KBO1 261100Z 18009KT 15/15 A3002 RMK A01 T01450145  RH  100%=      5-min Rain = 0
KBO1 261101Z 18009KT 15/15 A3002 RMK A01 T01450145  RH  100%=      5-min Rain = 0
KBO1 261102Z 18009KT 15/15 A3002 RMK A01 T01450146  RH  100%=      5-min Rain = 0
KBO1 261103Z 18009KT 15/15 A3002 RMK A01 T01450146  RH  100%=      5-min Rain = 0
KBO1 261104Z 18009KT 15/15 A3002 RMK A01 T01450145  RH  100%=      5-min Rain = 0
KBO1 261105Z 18009KT 15/15 A3002 RMK A01 T01450145  RH  100%=      5-min Rain = 0
KBO1 261106Z 18009KT 15/15 A3002 RMK A01 T01460146  RH  100%=      5-min Rain = 0
KBO1 261107Z 18010KT 15/15 A3002 RMK A01 T01460146  RH  100%=      5-min Rain = 0
KBO1 261108Z 18009KT 15/15 A3002 RMK A01 T01460146  RH  100%=      5-min Rain = 0
KBO1 261109Z 18010KT 15/15 A3002 RMK A01 T01460146  RH  100%=      5-min Rain = 0
KBO1 261110Z 18009KT 15/15 A3002 RMK A01 T01460146  RH  100%=      5-min Rain = 0
KBO1 261111Z 18009KT 15/15 A3002 RMK A01 T01460146  RH  100%=      5-min Rain = 0
KBO1 261112Z 18009KT 15/15 A3002 RMK A01 T01470147  RH  100%=      5-min Rain = 0
KBO1 261113Z 18009KT 15/15 A3002 RMK A01 T01460146  RH  100%=      5-min Rain = 0
KBO1 261114Z 18009KT 15/15 A3002 RMK A01 T01460146  RH  100%=      5-min Rain = 0
KBO1 261115Z 18009KT 15/15 A3002 RMK A01 T01460146  RH  100%=      5-min Rain = 0
KBO1 261116Z 18008KT 15/15 A3002 RMK A01 T01470147  RH  100%=      5-min Rain = 0
KBO1 261117Z 18008KT 15/15 A3002 RMK A01 T01460146  RH  100%=      5-min Rain = 0
KBO1 261118Z 18008KT 15/15 A3002 RMK A01 T01460147  RH  100%=      5-min Rain = 0
KBO1 261119Z 18008KT 15/15 A3003 RMK A01 T01460146  RH  100%=      5-min Rain = 0
KBO1 261120Z 18008KT 15/15 A3003 RMK A01 T01460146  RH  100%=      5-min Rain = 0
KBO1 261121Z 18008KT 15/15 A3003 RMK A01 T01460146  RH  100%=      5-min Rain = 0
KBO1 261122Z 18008KT 15/15 A3003 RMK A01 T01460147  RH  100%=      5-min Rain = 0
KBO1 261123Z 17008KT 15/15 A3003 RMK A01 T01460146  RH  100%=      5-min Rain = 0
KBO1 261124Z 17008KT 15/15 A3002 RMK A01 T01460146  RH  100%=      5-min Rain = 0
KBO1 261125Z 17008KT 15/15 A3002 RMK A01 T01460146  RH  100%=      5-min Rain = 0
KBO1 261126Z 17008KT 15/15 A3003 RMK A01 T01460146  RH  100%=      5-min Rain = 0
KBO1 261127Z 17008KT 15/15 A3003 RMK A01 T01460146  RH  100%=      5-min Rain = 0
KBO1 261128Z 17008KT 15/15 A3003 RMK A01 T01460146  RH  100%=      5-min Rain = 0
KBO1 261129Z 17008KT 15/15 A3003 RMK A01 T01460146  RH  100%=      5-min Rain = 0
KBO1 261130Z 16008KT 15/15 A3003 RMK A01 T01460146  RH  100%=      5-min Rain = 0
KBO1 261131Z 16008KT 15/15 A3003 RMK A01 T01460146  RH  100%=      5-min Rain = 0
KBO1 261132Z 15008KT 15/15 A3003 RMK A01 T01460146  RH  100%=      5-min Rain = 0
KBO1 261133Z 15008KT 15/15 A3003 RMK A01 T01450145  RH  100%=      5-min Rain = 0
KBO1 261134Z 15008KT 14/14 A3003 RMK A01 T01440144  RH  100%=      5-min Rain = 0
KBO1 261135Z 15008KT 14/14 A3003 RMK A01 T01430144  RH  100%=      5-min Rain = 0
KBO1 261136Z 15008KT 14/14 A3003 RMK A01 T01430143  RH  100%=      5-min Rain = 0
KBO1 261137Z 15008KT 14/14 A3003 RMK A01 T01430143  RH  100%=      5-min Rain = 0
KBO1 261138Z 15008KT 14/14 A3003 RMK A01 T01430143  RH  100%=      5-min Rain = 0
KBO1 261139Z 15008KT 14/14 A3003 RMK A01 T01420142  RH  100%=      5-min Rain = 0
KBO1 261140Z 15008KT 14/14 A3003 RMK A01 T01420142  RH  100%=      5-min Rain = 0
KBO1 261141Z 15008KT 14/14 A3003 RMK A01 T01420142  RH  100%=      5-min Rain = 0
KBO1 261142Z 15008KT 14/14 A3003 RMK A01 T01420142  RH  100%=      5-min Rain = 0
KBO1 261143Z 15008KT 14/14 A3003 RMK A01 T01420142  RH  100%=      5-min Rain = 0
KBO1 261144Z 15008KT 14/14 A3003 RMK A01 T01410141  RH  100%=      5-min Rain = 0
KBO1 261145Z 15008KT 14/14 A3003 RMK A01 T01410141  RH  100%=      5-min Rain = 0
KBO1 261146Z 15008KT 14/14 A3003 RMK A01 T01400141  RH  100%=      5-min Rain = 0
KBO1 261147Z 15007KT 14/14 A3003 RMK A01 T01400140  RH  100%=      5-min Rain = 0
KBO1 261148Z 15008KT 14/14 A3003 RMK A01 T01400140  RH  100%=      5-min Rain = 0
KBO1 261149Z 15008KT 14/14 A3003 RMK A01 T01400140  RH  100%=      5-min Rain = 0
KBO1 261150Z 14008KT 14/14 A3003 RMK A01 T01390139  RH  100%=      5-min Rain = 0
KBO1 261151Z 14008KT 14/14 A3003 RMK A01 T01390139  RH  100%=      5-min Rain = 0
KBO1 261152Z 14008KT 14/14 A3003 RMK A01 T01390139  RH  100%=      5-min Rain = 0
KBO1 261153Z 14008KT 14/14 A3003 RMK A01 T01390139  RH  100%=      5-min Rain = 0
KBO1 261154Z 15008KT 14/14 A3003 RMK A01 T01380139  RH  100%=      5-min Rain = 0
KBO1 261155Z 15008KT 14/14 A3003 RMK A01 T01380138  RH  100%=      5-min Rain = 0
KBO1 261156Z 15008KT 14/14 A3003 RMK A01 T01380139  RH  100%=      5-min Rain = 0
KBO1 261157Z 15008KT 14/14 A3003 RMK A01 T01390139  RH  100%=      5-min Rain = 0
KBO1 261158Z 15008KT 14/14 A3003 RMK A01 T01380139  RH  100%=      5-min Rain = 0
KBO1 261159Z 15008KT 14/14 A3003 RMK A01 T01390139  RH  100%=      5-min Rain = 0
KBO1 261200Z 15008KT 14/14 A3003 RMK A01 T01390139  RH  100%=      5-min Rain = 0
KBO1 261201Z 15008KT 14/14 A3003 RMK A01 T01390139  RH  100%=      5-min Rain = 0
KBO1 261202Z 15008KT 14/14 A3003 RMK A01 T01390139  RH  100%=      5-min Rain = 0
KBO1 261203Z 15008KT 14/14 A3003 RMK A01 T01400140  RH  100%=      5-min Rain = 0
KBO1 261204Z 15008KT 14/14 A3003 RMK A01 T01400140  RH  100%=      5-min Rain = 0
KBO1 261205Z 15008KT 14/14 A3003 RMK A01 T01410141  RH  100%=      5-min Rain = 0
KBO1 261206Z 15008KT 14/14 A3003 RMK A01 T01410141  RH  100%=      5-min Rain = 0
KBO1 261207Z 15008KT 14/14 A3003 RMK A01 T01410141  RH  100%=      5-min Rain = 0
KBO1 261208Z 16008KT 14/14 A3003 RMK A01 T01420142  RH  100%=      5-min Rain = 0
KBO1 261209Z 16008KT 14/14 A3003 RMK A01 T01420143  RH  100%=      5-min Rain = 0
KBO1 261210Z 16008KT 14/14 A3003 RMK A01 T01430143  RH  100%=      5-min Rain = 0
KBO1 261211Z 16008KT 14/14 A3003 RMK A01 T01440144  RH  100%=      5-min Rain = 0
KBO1 261212Z 16009KT 14/14 A3003 RMK A01 T01440144  RH  100%=      5-min Rain = 0
KBO1 261213Z 15008KT 14/14 A3003 RMK A01 T01430144  RH  100%=      5-min Rain = 0
KBO1 261214Z 15009KT 14/14 A3003 RMK A01 T01440144  RH  100%=      5-min Rain = 0
KBO1 261215Z 15008KT 14/14 A3004 RMK A01 T01440144  RH  100%=      5-min Rain = 0
KBO1 261216Z 15008KT 14/14 A3004 RMK A01 T01440144  RH  100%=      5-min Rain = 0
KBO1 261217Z 15008KT 15/15 A3004 RMK A01 T01450145  RH  100%=      5-min Rain = 0
KBO1 261218Z 15009KT 15/15 A3004 RMK A01 T01450145  RH  100%=      5-min Rain = 0
KBO1 261219Z 15008KT 15/15 A3004 RMK A01 T01460146  RH  100%=      5-min Rain = 0
KBO1 261220Z 15008KT 15/15 A3004 RMK A01 T01460146  RH  100%=      5-min Rain = 0
KBO1 261221Z 15008KT 15/15 A3004 RMK A01 T01470147  RH  100%=      5-min Rain = 0
KBO1 261222Z 15008KT 15/15 A3004 RMK A01 T01470147  RH  100%=      5-min Rain = 0
KBO1 261223Z 15009KT 15/15 A3004 RMK A01 T01480148  RH  100%=      5-min Rain = 0
KBO1 261224Z 15008KT 15/15 A3004 RMK A01 T01480148  RH  100%=      5-min Rain = 0
KBO1 261225Z 15008KT 15/15 A3004 RMK A01 T01490149  RH  100%=      5-min Rain = 0
KBO1 261226Z 15009KT 15/15 A3004 RMK A01 T01490149  RH  100%=      5-min Rain = 0
KBO1 261227Z 15009KT 15/15 A3005 RMK A01 T01490149  RH  100%=      5-min Rain = 0
KBO1 261228Z 15008KT 15/15 A3005 RMK A01 T01500150  RH  100%=      5-min Rain = 0
KBO1 261229Z 15009KT 15/15 A3005 RMK A01 T01500150  RH  100%=      5-min Rain = 0
KBO1 261230Z 16009KT 15/15 A3005 RMK A01 T01500150  RH  100%=      5-min Rain = 0
KBO1 261231Z 16009KT 15/15 A3005 RMK A01 T01500150  RH  100%=      5-min Rain = 0
KBO1 261232Z 16008KT 15/15 A3005 RMK A01 T01510151  RH  100%=      5-min Rain = 0
KBO1 261233Z 15008KT 15/15 A3005 RMK A01 T01510151  RH  100%=      5-min Rain = 0
KBO1 261234Z 15008KT 15/15 A3005 RMK A01 T01520152  RH  100%=      5-min Rain = 0
KBO1 261235Z 15009KT 15/15 A3005 RMK A01 T01520152  RH  100%=      5-min Rain = 0
KBO1 261236Z 15008KT 15/15 A3005 RMK A01 T01530153  RH  100%=      5-min Rain = 0
KBO1 261237Z 15008KT 15/15 A3005 RMK A01 T01530153  RH  100%=      5-min Rain = 0
KBO1 261238Z 15009KT 15/15 A3005 RMK A01 T01530153  RH  100%=      5-min Rain = 0
KBO1 261239Z 15008KT 15/15 A3005 RMK A01 T01530153  RH  100%=      5-min Rain = 0
KBO1 261240Z 15009KT 15/15 A3005 RMK A01 T01540154  RH  100%=      5-min Rain = 0
KBO1 261241Z 16009KT 15/15 A3005 RMK A01 T01540154  RH  100%=      5-min Rain = 0
KBO1 261242Z 16009KT 15/16 A3005 RMK A01 T01540155  RH  100%=      5-min Rain = 0
KBO1 261243Z 16009KT 16/16 A3005 RMK A01 T01550155  RH  100%=      5-min Rain = 0
KBO1 261244Z 15009KT 16/16 A3005 RMK A01 T01550155  RH  100%=      5-min Rain = 0
KBO1 261245Z 15008KT 16/16 A3005 RMK A01 T01550156  RH  100%=      5-min Rain = 0
KBO1 261246Z 15009KT 16/16 A3005 RMK A01 T01560156  RH  100%=      5-min Rain = 0
KBO1 261247Z 15009KT 16/16 A3004 RMK A01 T01570157  RH  100%=      5-min Rain = 0
KBO1 261248Z 15009KT 16/16 A3005 RMK A01 T01570157  RH  100%=      5-min Rain = 0
KBO1 261249Z 15009KT 16/16 A3005 RMK A01 T01580158  RH  100%=      5-min Rain = 0
KBO1 261250Z 15010KT 16/16 A3005 RMK A01 T01580158  RH  100%=      5-min Rain = 0
KBO1 261251Z 15009KT 16/16 A3005 RMK A01 T01580159  RH  100%=      5-min Rain = 0
KBO1 261252Z 15009KT 16/16 A3005 RMK A01 T01590159  RH  100%=      5-min Rain = 0
KBO1 261253Z 15009KT 16/16 A3005 RMK A01 T01590160  RH  100%=      5-min Rain = 0
KBO1 261254Z 15009KT 16/16 A3005 RMK A01 T01600160  RH  100%=      5-min Rain = 0
KBO1 261255Z 16008KT 16/16 A3005 RMK A01 T01600160  RH  100%=      5-min Rain = 0
KBO1 261256Z 16010KT 16/16 A3005 RMK A01 T01610161  RH  100%=      5-min Rain = 0
KBO1 261257Z 15010KT 16/16 A3005 RMK A01 T01610161  RH  100%=      5-min Rain = 0
KBO1 261258Z 15011KT 16/16 A3005 RMK A01 T01610161  RH  100%=      5-min Rain = 0
KBO1 261259Z 15010KT 16/16 A3005 RMK A01 T01610161  RH  100%=      5-min Rain = 0
KBO1 261300Z 15011KT 16/16 A3005 RMK A01 T01610161  RH  100%=      5-min Rain = 0
KBO1 261301Z 15010KT 16/16 A3005 RMK A01 T01610161  RH  100%=      5-min Rain = 0
KBO1 261302Z 16010KT 16/16 A3005 RMK A01 T01620162  RH  100%=      5-min Rain = 0
KBO1 261303Z 16010KT 16/16 A3005 RMK A01 T01620162  RH  100%=      5-min Rain = 0
KBO1 261304Z 16009KT 16/16 A3005 RMK A01 T01620162  RH  100%=      5-min Rain = 0
KBO1 261305Z 15010KT 16/16 A3005 RMK A01 T01620163  RH  100%=      5-min Rain = 0
KBO1 261306Z 16010KT 16/16 A3005 RMK A01 T01620162  RH  100%=      5-min Rain = 0
KBO1 261307Z 15009KT 16/16 A3005 RMK A01 T01620162  RH  100%=      5-min Rain = 0
KBO1 261308Z 15010KT 16/16 A3005 RMK A01 T01630163  RH  100%=      5-min Rain = 0
KBO1 261309Z 15010KT 16/16 A3005 RMK A01 T01630163  RH  100%=      5-min Rain = 0
KBO1 261310Z 15009KT 16/16 A3005 RMK A01 T01630163  RH  100%=      5-min Rain = 0
KBO1 261311Z 15010KT 16/16 A3004 RMK A01 T01630163  RH  100%=      5-min Rain = 0
KBO1 261312Z 15010KT 16/16 A3004 RMK A01 T01630163  RH  100%=      5-min Rain = 0
KBO1 261313Z 15009KT 16/16 A3004 RMK A01 T01640164  RH  100%=      5-min Rain = 0
KBO1 261314Z 15009KT 16/16 A3004 RMK A01 T01640164  RH  100%=      5-min Rain = 0
KBO1 261315Z 15010KT 16/17 A3004 RMK A01 T01640165  RH  100%=      5-min Rain = 0
KBO1 261316Z 15010KT 16/17 A3004 RMK A01 T01640165  RH  100%=      5-min Rain = 0
KBO1 261317Z 15012KT 17/17 A3004 RMK A01 T01650165  RH  100%=      5-min Rain = 0
KBO1 261318Z 14010KT 17/17 A3004 RMK A01 T01650165  RH  100%=      5-min Rain = 0
KBO1 261319Z 14010KT 16/17 A3005 RMK A01 T01640165  RH  100%=      5-min Rain = 0
KBO1 261320Z 14010KT 17/17 A3005 RMK A01 T01650165  RH  100%=      5-min Rain = 0
KBO1 261321Z 15010KT 17/17 A3005 RMK A01 T01650165  RH  100%=      5-min Rain = 0
KBO1 261322Z 15011KT 17/17 A3004 RMK A01 T01650165  RH  100%=      5-min Rain = 0
KBO1 261323Z 15009KT 17/17 A3005 RMK A01 T01660166  RH  100%=      5-min Rain = 0
KBO1 261324Z 15011KT 17/17 A3005 RMK A01 T01660166  RH  100%=      5-min Rain = 0
KBO1 261325Z 15010KT 17/17 A3005 RMK A01 T01660166  RH  100%=      5-min Rain = 0
KBO1 261326Z 15009KT 17/17 A3005 RMK A01 T01660166  RH  100%=      5-min Rain = 0
KBO1 261327Z 15009KT 17/17 A3005 RMK A01 T01670167  RH  100%=      5-min Rain = 0
KBO1 261328Z 15009KT 17/17 A3005 RMK A01 T01670167  RH  100%=      5-min Rain = 0
KBO1 261329Z 14009KT 17/17 A3005 RMK A01 T01670167  RH  100%=      5-min Rain = 0
KBO1 261330Z 14010KT 17/17 A3005 RMK A01 T01680168  RH  100%=      5-min Rain = 0
KBO1 261331Z 15010KT 17/17 A3005 RMK A01 T01680168  RH  100%=      5-min Rain = 0
KBO1 261332Z 15010KT 17/17 A3005 RMK A01 T01680168  RH  100%=      5-min Rain = 0
KBO1 261333Z 14010KT 17/17 A3005 RMK A01 T01680168  RH  100%=      5-min Rain = 0
KBO1 261334Z 14011KT 17/17 A3005 RMK A01 T01680168  RH  100%=      5-min Rain = 0
KBO1 261335Z 14011KT 17/17 A3005 RMK A01 T01680168  RH  100%=      5-min Rain = 0
KBO1 261336Z 15010KT 17/17 A3005 RMK A01 T01680168  RH  100%=      5-min Rain = 0
KBO1 261337Z 14010KT 17/17 A3005 RMK A01 T01690169  RH  100%=      5-min Rain = 0
KBO1 261338Z 14010KT 17/17 A3005 RMK A01 T01690169  RH  100%=      5-min Rain = 0
KBO1 261339Z 14012KT 17/17 A3004 RMK A01 T01690170  RH  100%=      5-min Rain = 0
KBO1 261340Z 14011KT 17/17 A3004 RMK A01 T01690170  RH  100%=      5-min Rain = 0
KBO1 261341Z 14011KT 17/17 A3004 RMK A01 T01690170  RH  100%=      5-min Rain = 0
KBO1 261342Z 15010KT 17/17 A3004 RMK A01 T01690170  RH  100%=      5-min Rain = 0
KBO1 261343Z 15010KT 17/17 A3004 RMK A01 T01700170  RH  100%=      5-min Rain = 0
KBO1 261344Z 15011KT 17/17 A3004 RMK A01 T01710171  RH  100%=      5-min Rain = 0
KBO1 261345Z 15011KT 17/17 A3004 RMK A01 T01710171  RH  100%=      5-min Rain = 0
KBO1 261346Z 15011KT 17/17 A3005 RMK A01 T01710171  RH  100%=      5-min Rain = 0
KBO1 261347Z 15011KT 17/17 A3005 RMK A01 T01710171  RH  100%=      5-min Rain = 0
KBO1 261348Z 15010KT 17/17 A3005 RMK A01 T01710171  RH  100%=      5-min Rain = 0
KBO1 261349Z 15012KT 17/17 A3004 RMK A01 T01720172  RH  100%=      5-min Rain = 0
KBO1 261350Z 15013KT 17/17 A3004 RMK A01 T01720172  RH  100%=      5-min Rain = 0
KBO1 261351Z 15013KT 17/17 A3004 RMK A01 T01710172  RH  100%=      5-min Rain = 0
KBO1 261352Z 15013KT 17/17 A3004 RMK A01 T01720172  RH  100%=      5-min Rain = 0
KBO1 261353Z 15012KT 17/17 A3005 RMK A01 T01720172  RH  100%=      5-min Rain = 0
KBO1 261354Z 15012KT 17/17 A3005 RMK A01 T01720172  RH  100%=      5-min Rain = 0
KBO1 261355Z 15012KT 17/17 A3005 RMK A01 T01720172  RH  100%=      5-min Rain = 0
KBO1 261356Z 16013KT 17/17 A3005 RMK A01 T01730173  RH  100%=      5-min Rain = 0
KBO1 261357Z 16013KT 17/17 A3005 RMK A01 T01720173  RH  100%=      5-min Rain = 0
KBO1 261358Z 15010KT 17/17 A3005 RMK A01 T01730173  RH  100%=      5-min Rain = 0
KBO1 261359Z 15010KT 17/17 A3005 RMK A01 T01740174  RH  100%=      5-min Rain = 0
KBO1 261400Z 15012KT 17/17 A3005 RMK A01 T01740174  RH  100%=      5-min Rain = 0
KBO1 261401Z 15013KT 17/17 A3005 RMK A01 T01740174  RH  100%=      5-min Rain = 0
KBO1 261402Z 15011KT 17/17 A3005 RMK A01 T01740174  RH  100%=      5-min Rain = 0
KBO1 261403Z 15012KT 17/17 A3004 RMK A01 T01730173  RH  100%=      5-min Rain = 0
KBO1 261404Z 15013KT 17/17 A3004 RMK A01 T01740174  RH  100%=      5-min Rain = 0
KBO1 261405Z 15011KT 17/17 A3004 RMK A01 T01730174  RH  100%=      5-min Rain = 0
KBO1 261406Z 15010KT 17/17 A3004 RMK A01 T01740174  RH  100%=      5-min Rain = 0
KBO1 261407Z 15010KT 17/17 A3004 RMK A01 T01740174  RH  100%=      5-min Rain = 0
KBO1 261408Z 15012KT 18/18 A3004 RMK A01 T01750175  RH  100%=      5-min Rain = 0
KBO1 261409Z 15013KT 17/18 A3005 RMK A01 T01740175  RH  100%=      5-min Rain = 0
KBO1 261410Z 16012KT 17/18 A3005 RMK A01 T01740175  RH  100%=      5-min Rain = 0
KBO1 261411Z 15011KT 18/18 A3005 RMK A01 T01750175  RH  100%=      5-min Rain = 0
KBO1 261412Z 15012KT 18/18 A3005 RMK A01 T01760176  RH  100%=      5-min Rain = 0
KBO1 261413Z 15011KT 18/18 A3005 RMK A01 T01760176  RH  100%=      5-min Rain = 0
KBO1 261414Z 15012KT 18/18 A3005 RMK A01 T01770177  RH  100%=      5-min Rain = 0
KBO1 261415Z 15013KT 18/18 A3005 RMK A01 T01770177  RH  100%=      5-min Rain = 0
KBO1 261416Z 16013KT 18/18 A3005 RMK A01 T01770176  RH  100%=      5-min Rain = 0
KBO1 261417Z 15010KT 18/18 A3005 RMK A01 T01770176  RH  100%=      5-min Rain = 0
KBO1 261418Z 16010KT 18/18 A3005 RMK A01 T01770177  RH  100%=      5-min Rain = 0
KBO1 261419Z 15010KT 18/18 A3005 RMK A01 T01770177  RH  100%=      5-min Rain = 0
KBO1 261420Z 15012KT 18/18 A3005 RMK A01 T01770177  RH  100%=      5-min Rain = 0
KBO1 261421Z 16012KT 18/18 A3005 RMK A01 T01770177  RH  100%=      5-min Rain = 0
KBO1 261422Z 15013KT 18/18 A3005 RMK A01 T01770177  RH  100%=      5-min Rain = 0
KBO1 261423Z 15014KT 18/18 A3005 RMK A01 T01770176  RH  099%=      5-min Rain = 0
KBO1 261424Z 16012KT 18/18 A3005 RMK A01 T01770176  RH  099%=      5-min Rain = 0
KBO1 261425Z 16012KT 18/18 A3005 RMK A01 T01780176  RH  099%=      5-min Rain = 0
KBO1 261426Z 16013KT 18/18 A3005 RMK A01 T01780177  RH  099%=      5-min Rain = 0
KBO1 261427Z 16014KT 18/18 A3005 RMK A01 T01780177  RH  099%=      5-min Rain = 0
KBO1 261428Z 16013KT 18/18 A3005 RMK A01 T01780176  RH  099%=      5-min Rain = 0
KBO1 261429Z 16013KT 18/18 A3005 RMK A01 T01790177  RH  099%=      5-min Rain = 0
KBO1 261430Z 16016KT 18/18 A3005 RMK A01 T01790176  RH  098%=      5-min Rain = 0
KBO1 261431Z 16013KT 18/18 A3005 RMK A01 T01790175  RH  098%=      5-min Rain = 0
KBO1 261432Z 16013KT 18/18 A3005 RMK A01 T01790176  RH  098%=      5-min Rain = 0
KBO1 261433Z 16014KT 18/18 A3005 RMK A01 T01800176  RH  098%=      5-min Rain = 0
KBO1 261434Z 16013KT 18/18 A3005 RMK A01 T01790176  RH  098%=      5-min Rain = 0
KBO1 261435Z 16014KT 18/18 A3005 RMK A01 T01800176  RH  098%=      5-min Rain = 0
KBO1 261436Z 16014KT 18/18 A3006 RMK A01 T01800176  RH  098%=      5-min Rain = 0
KBO1 261437Z 16015KT 18/18 A3006 RMK A01 T01800176  RH  098%=      5-min Rain = 0
KBO1 261438Z 16014KT 18/18 A3006 RMK A01 T01800176  RH  097%=      5-min Rain = 0
KBO1 261439Z 16013KT 18/18 A3006 RMK A01 T01800176  RH  098%=      5-min Rain = 0
KBO1 261440Z 16012KT 18/18 A3006 RMK A01 T01800177  RH  098%=      5-min Rain = 0
KBO1 261441Z 17010KT 18/18 A3006 RMK A01 T01800177  RH  098%=      5-min Rain = 0
KBO1 261442Z 17011KT 18/18 A3006 RMK A01 T01800178  RH  098%=      5-min Rain = 0
KBO1 261443Z 17013KT 18/18 A3006 RMK A01 T01800178  RH  098%=      5-min Rain = 0
KBO1 261444Z 17013KT 18/18 A3005 RMK A01 T01800177  RH  098%=      5-min Rain = 0
KBO1 261445Z 16012KT 18/18 A3006 RMK A01 T01800176  RH  098%=      5-min Rain = 0
KBO1 261446Z 16014KT 18/18 A3005 RMK A01 T01800176  RH  097%=      5-min Rain = 0
KBO1 261447Z 17015KT 18/18 A3005 RMK A01 T01800176  RH  097%=      5-min Rain = 0
KBO1 261448Z 16013KT 18/18 A3005 RMK A01 T01800175  RH  097%=      5-min Rain = 0
KBO1 261449Z 17012KT 18/18 A3005 RMK A01 T01800175  RH  097%=      5-min Rain = 0
KBO1 261450Z 17011KT 18/18 A3006 RMK A01 T01810176  RH  097%=      5-min Rain = 0
KBO1 261451Z 16013KT 18/18 A3006 RMK A01 T01810177  RH  097%=      5-min Rain = 0
KBO1 261452Z 16013KT 18/18 A3006 RMK A01 T01810176  RH  097%=      5-min Rain = 0
KBO1 261453Z 17015KT 18/18 A3005 RMK A01 T01820176  RH  097%=      5-min Rain = 0
KBO1 261454Z 16014KT 18/18 A3006 RMK A01 T01820176  RH  096%=      5-min Rain = 0
KBO1 261455Z 16015KT 18/18 A3006 RMK A01 T01820175  RH  096%=      5-min Rain = 0
KBO1 261456Z 17014KT 18/18 A3006 RMK A01 T01820175  RH  096%=      5-min Rain = 0
KBO1 261457Z 17012KT 18/18 A3006 RMK A01 T01820176  RH  096%=      5-min Rain = 0
KBO1 261458Z 17012KT 18/18 A3005 RMK A01 T01820176  RH  096%=      5-min Rain = 0
KBO1 261459Z 17014KT 18/18 A3005 RMK A01 T01830176  RH  096%=      5-min Rain = 0
KBO1 261500Z 17013KT 18/18 A3005 RMK A01 T01820176  RH  096%=      5-min Rain = 0
KBO1 261501Z 16012KT 18/18 A3005 RMK A01 T01830176  RH  096%=      5-min Rain = 0
KBO1 261502Z 16013KT 18/18 A3005 RMK A01 T01830176  RH  096%=      5-min Rain = 0
KBO1 261503Z 17013KT 18/18 A3005 RMK A01 T01830175  RH  095%=      5-min Rain = 0
KBO1 261504Z 17015KT 18/18 A3005 RMK A01 T01830175  RH  095%=      5-min Rain = 0
KBO1 261505Z 17014KT 18/18 A3005 RMK A01 T01820175  RH  095%=      5-min Rain = 0
KBO1 261506Z 17015KT 18/17 A3005 RMK A01 T01830174  RH  095%=      5-min Rain = 0
KBO1 261507Z 17014KT 18/18 A3005 RMK A01 T01830175  RH  095%=      5-min Rain = 0
KBO1 261508Z 17013KT 18/18 A3005 RMK A01 T01830175  RH  095%=      5-min Rain = 0
KBO1 261509Z 17014KT 18/18 A3005 RMK A01 T01830175  RH  095%=      5-min Rain = 0
KBO1 261510Z 17014KT 18/18 A3005 RMK A01 T01830175  RH  095%=      5-min Rain = 0
KBO1 261511Z 17014KT 18/18 A3005 RMK A01 T01830175  RH  095%=      5-min Rain = 0
KBO1 261512Z 17013KT 18/18 A3005 RMK A01 T01830175  RH  095%=      5-min Rain = 0
KBO1 261513Z 17011KT 18/18 A3005 RMK A01 T01830176  RH  095%=      5-min Rain = 0
KBO1 261514Z 17011KT 18/18 A3005 RMK A01 T01830176  RH  096%=      5-min Rain = 0
KBO1 261515Z 17012KT 18/18 A3005 RMK A01 T01830176  RH  096%=      5-min Rain = 0
KBO1 261516Z 17012KT 18/18 A3005 RMK A01 T01830176  RH  096%=      5-min Rain = 0
KBO1 261517Z 16014KT 18/18 A3005 RMK A01 T01820176  RH  096%=      5-min Rain = 0
KBO1 261518Z 17015KT 18/18 A3005 RMK A01 T01820176  RH  096%=      5-min Rain = 0
KBO1 261519Z 17015KT 18/18 A3005 RMK A01 T01820175  RH  096%=      5-min Rain = 0
KBO1 261520Z 17015KT 18/18 A3005 RMK A01 T01810176  RH  097%=      5-min Rain = 0
KBO1 261521Z 17016KT 18/18 A3005 RMK A01 T01810176  RH  097%=      5-min Rain = 0
KBO1 261522Z 16013KT 18/18 A3005 RMK A01 T01810176  RH  097%=      5-min Rain = 0
KBO1 261523Z 17012KT 18/18 A3005 RMK A01 T01820178  RH  097%=      5-min Rain = 0
KBO1 261524Z 17014KT 18/18 A3005 RMK A01 T01830178  RH  097%=      5-min Rain = 0
KBO1 261525Z 17015KT 18/18 A3005 RMK A01 T01830178  RH  097%=      5-min Rain = 0
KBO1 261526Z 17015KT 18/18 A3005 RMK A01 T01830176  RH  096%=      5-min Rain = 0
KBO1 261527Z 17014G19KT 18/18 A3005 RMK A01 T01830176  RH  096%=      5-min Rain = 0
KBO1 261528Z 17016KT 18/18 A3005 RMK A01 T01830176  RH  095%=      5-min Rain = 0
KBO1 261529Z 18016KT 18/18 A3005 RMK A01 T01840176  RH  095%=      5-min Rain = 0
KBO1 261530Z 17016KT 18/18 A3005 RMK A01 T01840176  RH  095%=      5-min Rain = 0
KBO1 261531Z 17014KT 19/18 A3005 RMK A01 T01850176  RH  095%=      5-min Rain = 0
KBO1 261532Z 17016KT 19/18 A3005 RMK A01 T01860176  RH  094%=      5-min Rain = 0
KBO1 261533Z 18016KT 19/18 A3005 RMK A01 T01860176  RH  094%=      5-min Rain = 0
KBO1 261534Z 18015KT 19/18 A3005 RMK A01 T01860175  RH  093%=      5-min Rain = 0
KBO1 261535Z 17011KT 19/18 A3005 RMK A01 T01870176  RH  094%=      5-min Rain = 0
KBO1 261536Z 18015KT 19/18 A3005 RMK A01 T01870177  RH  094%=      5-min Rain = 0
KBO1 261537Z 17016KT 19/18 A3005 RMK A01 T01880176  RH  093%=      5-min Rain = 0
KBO1 261538Z 17013KT 19/18 A3005 RMK A01 T01870176  RH  093%=      5-min Rain = 0
KBO1 261539Z 16015KT 19/18 A3005 RMK A01 T01870176  RH  093%=      5-min Rain = 0
KBO1 261540Z 17016KT 19/18 A3005 RMK A01 T01870176  RH  093%=      5-min Rain = 0
KBO1 261541Z 17013KT 19/18 A3005 RMK A01 T01870175  RH  093%=      5-min Rain = 0
KBO1 261542Z 17013KT 19/18 A3005 RMK A01 T01870176  RH  094%=      5-min Rain = 0
KBO1 261543Z 18015KT 19/18 A3004 RMK A01 T01870176  RH  093%=      5-min Rain = 0
KBO1 261544Z 17014KT 19/17 A3005 RMK A01 T01870174  RH  092%=      5-min Rain = 0
KBO1 261545Z 17014KT 19/18 A3005 RMK A01 T01870175  RH  092%=      5-min Rain = 0
KBO1 261546Z 17011KT 19/18 A3005 RMK A01 T01880175  RH  093%=      5-min Rain = 0
KBO1 261547Z 17011KT 19/18 A3005 RMK A01 T01880177  RH  093%=      5-min Rain = 0
KBO1 261548Z 16014KT 19/18 A3005 RMK A01 T01880176  RH  093%=      5-min Rain = 0
KBO1 261549Z 16014KT 19/18 A3004 RMK A01 T01880176  RH  092%=      5-min Rain = 0
KBO1 261550Z 17013KT 19/18 A3004 RMK A01 T01880175  RH  092%=      5-min Rain = 0
KBO1 261551Z 17014KT 19/18 A3004 RMK A01 T01880176  RH  092%=      5-min Rain = 0
KBO1 261552Z 16012KT 19/18 A3004 RMK A01 T01880176  RH  093%=      5-min Rain = 0
KBO1 261553Z 16014KT 19/18 A3004 RMK A01 T01880176  RH  093%=      5-min Rain = 0
KBO1 261554Z 17013KT 19/18 A3004 RMK A01 T01880175  RH  093%=      5-min Rain = 0
KBO1 261555Z 18013KT 19/18 A3004 RMK A01 T01880176  RH  093%=      5-min Rain = 0
KBO1 261556Z 17011KT 19/18 A3005 RMK A01 T01880177  RH  093%=      5-min Rain = 0
KBO1 261557Z 17011KT 19/18 A3005 RMK A01 T01880177  RH  094%=      5-min Rain = 0
KBO1 261558Z 16013KT 19/18 A3004 RMK A01 T01880177  RH  093%=      5-min Rain = 0
KBO1 261559Z 17014KT 19/18 A3004 RMK A01 T01880176  RH  093%=      5-min Rain = 0
KBO1 261600Z 16015KT 19/17 A3005 RMK A01 T01880174  RH  092%=      5-min Rain = 0
KBO1 261601Z 17015KT 19/17 A3005 RMK A01 T01880174  RH  091%=      5-min Rain = 0
KBO1 261602Z 17014KT 19/17 A3005 RMK A01 T01880174  RH  092%=      5-min Rain = 0
KBO1 261603Z 17013KT 19/18 A3004 RMK A01 T01880175  RH  092%=      5-min Rain = 0
KBO1 261604Z 16014KT 19/18 A3004 RMK A01 T01880175  RH  092%=      5-min Rain = 0
KBO1 261605Z 17014KT 19/17 A3004 RMK A01 T01880174  RH  092%=      5-min Rain = 0
KBO1 261606Z 17014KT 19/17 A3004 RMK A01 T01880174  RH  092%=      5-min Rain = 0
KBO1 261607Z 16014KT 19/18 A3004 RMK A01 T01880175  RH  092%=      5-min Rain = 0
KBO1 261608Z 16013KT 19/18 A3005 RMK A01 T01880175  RH  092%=      5-min Rain = 0
KBO1 261609Z 17012KT 19/18 A3005 RMK A01 T01880175  RH  092%=      5-min Rain = 0
KBO1 261610Z 17013KT 19/18 A3005 RMK A01 T01880175  RH  092%=      5-min Rain = 0
KBO1 261611Z 16014KT 19/17 A3005 RMK A01 T01890174  RH  091%=      5-min Rain = 0
KBO1 261612Z 17013KT 19/17 A3005 RMK A01 T01880174  RH  091%=      5-min Rain = 0
KBO1 261613Z 18015KT 19/17 A3004 RMK A01 T01890174  RH  091%=      5-min Rain = 0
KBO1 261614Z 18015KT 19/17 A3005 RMK A01 T01890174  RH  091%=      5-min Rain = 0
KBO1 261615Z 17015KT 19/17 A3005 RMK A01 T01890174  RH  091%=      5-min Rain = 0
KBO1 261616Z 17011KT 19/18 A3005 RMK A01 T01880175  RH  092%=      5-min Rain = 0
KBO1 261617Z 17015KT 19/18 A3005 RMK A01 T01880175  RH  092%=      5-min Rain = 0
KBO1 261618Z 17013KT 19/17 A3005 RMK A01 T01880174  RH  092%=      5-min Rain = 0
KBO1 261619Z 17012KT 19/18 A3005 RMK A01 T01880175  RH  092%=      5-min Rain = 0
KBO1 261620Z 17012KT 19/18 A3005 RMK A01 T01880175  RH  092%=      5-min Rain = 0
KBO1 261621Z 17011KT 19/18 A3005 RMK A01 T01890176  RH  092%=      5-min Rain = 0
KBO1 261622Z 17014G19KT 19/18 A3005 RMK A01 T01890176  RH  092%=      5-min Rain = 0
KBO1 261623Z 17016KT 19/17 A3005 RMK A01 T01880174  RH  091%=      5-min Rain = 0
KBO1 261624Z 17013KT 19/18 A3005 RMK A01 T01880175  RH  092%=      5-min Rain = 0
KBO1 261625Z 17014KT 19/18 A3005 RMK A01 T01880175  RH  092%=      5-min Rain = 0
KBO1 261626Z 17015KT 19/18 A3005 RMK A01 T01880175  RH  092%=      5-min Rain = 0
KBO1 261627Z 17015KT 19/18 A3005 RMK A01 T01880175  RH  092%=      5-min Rain = 0
KBO1 261628Z 17014KT 19/17 A3005 RMK A01 T01870174  RH  092%=      5-min Rain = 0
KBO1 261629Z 17013KT 19/17 A3005 RMK A01 T01880174  RH  092%=      5-min Rain = 0
KBO1 261630Z 17014KT 19/18 A3005 RMK A01 T01880175  RH  092%=      5-min Rain = 0
KBO1 261631Z 18014KT 19/17 A3005 RMK A01 T01880174  RH  091%=      5-min Rain = 0
KBO1 261632Z 18016KT 19/17 A3005 RMK A01 T01890174  RH  091%=      5-min Rain = 0
KBO1 261633Z 18011KT 19/18 A3005 RMK A01 T01890175  RH  092%=      5-min Rain = 0
KBO1 261634Z 17010KT 19/18 A3005 RMK A01 T01880176  RH  093%=      5-min Rain = 0
KBO1 261635Z 16012KT 19/18 A3005 RMK A01 T01880177  RH  093%=      5-min Rain = 0
KBO1 261636Z 17012KT 19/18 A3005 RMK A01 T01880176  RH  093%=      5-min Rain = 0
KBO1 261637Z 17011KT 19/18 A3005 RMK A01 T01890177  RH  093%=      5-min Rain = 0
KBO1 261638Z 17011KT 19/18 A3005 RMK A01 T01880178  RH  093%=      5-min Rain = 0
KBO1 261639Z 16011KT 19/18 A3004 RMK A01 T01880178  RH  094%=      5-min Rain = 0
KBO1 261640Z 16012KT 19/18 A3004 RMK A01 T01880178  RH  094%=      5-min Rain = 0
KBO1 261641Z 16012KT 19/18 A3004 RMK A01 T01880178  RH  094%=      5-min Rain = 0
KBO1 261642Z 17011KT 19/18 A3005 RMK A01 T01890178  RH  093%=      5-min Rain = 0
KBO1 261643Z 16011KT 19/18 A3005 RMK A01 T01890178  RH  093%=      5-min Rain = 0
KBO1 261644Z 17012KT 19/18 A3005 RMK A01 T01890178  RH  093%=      5-min Rain = 0
KBO1 261645Z 17015KT 19/18 A3005 RMK A01 T01890178  RH  093%=      5-min Rain = 0
KBO1 261646Z 17014KT 19/18 A3005 RMK A01 T01890178  RH  093%=      5-min Rain = 0
KBO1 261647Z 17012KT 19/18 A3005 RMK A01 T01880178  RH  094%=      5-min Rain = 0
KBO1 261648Z 17013KT 19/18 A3005 RMK A01 T01880178  RH  094%=      5-min Rain = 0
KBO1 261649Z 17013KT 19/18 A3005 RMK A01 T01880178  RH  094%=      5-min Rain = 0
KBO1 261650Z 18012KT 19/18 A3005 RMK A01 T01880179  RH  094%=      5-min Rain = 0
KBO1 261651Z 17011KT 19/18 A3005 RMK A01 T01890180  RH  094%=      5-min Rain = 0
KBO1 261652Z 17014KT 19/18 A3005 RMK A01 T01900180  RH  094%=      5-min Rain = 0
KBO1 261653Z 18015KT 19/18 A3005 RMK A01 T01900178  RH  092%=      5-min Rain = 0
KBO1 261654Z 18015KT 19/18 A3005 RMK A01 T01910178  RH  092%=      5-min Rain = 0
KBO1 261655Z 17014KT 19/18 A3005 RMK A01 T01910177  RH  092%=      5-min Rain = 0
KBO1 261656Z 17012KT 19/18 A3005 RMK A01 T01910178  RH  092%=      5-min Rain = 0
KBO1 261657Z 17013KT 19/18 A3004 RMK A01 T01920179  RH  092%=      5-min Rain = 0
KBO1 261658Z 17014KT 19/18 A3004 RMK A01 T01920177  RH  091%=      5-min Rain = 0
KBO1 261659Z 17014KT 19/18 A3004 RMK A01 T01920177  RH  091%=      5-min Rain = 0
KBO1 261700Z 16015KT 19/18 A3004 RMK A01 T01930178  RH  091%=      5-min Rain = 0
KBO1 261701Z 16013KT 19/18 A3004 RMK A01 T01920177  RH  091%=      5-min Rain = 0
KBO1 261702Z 16013KT 19/18 A3004 RMK A01 T01930178  RH  091%=      5-min Rain = 0
KBO1 261703Z 16015KT 19/18 A3004 RMK A01 T01940177  RH  090%=      5-min Rain = 0
KBO1 261704Z 16014KT 19/18 A3004 RMK A01 T01940176  RH  089%=      5-min Rain = 0
KBO1 261705Z 17014KT 19/18 A3004 RMK A01 T01940177  RH  089%=      5-min Rain = 0
KBO1 261706Z 16014KT 20/18 A3004 RMK A01 T01950178  RH  089%=      5-min Rain = 0
KBO1 261707Z 17012KT 20/18 A3004 RMK A01 T01960178  RH  089%=      5-min Rain = 0
KBO1 261708Z 17015KT 20/18 A3004 RMK A01 T01970177  RH  089%=      5-min Rain = 0
KBO1 261709Z 17016KT 20/18 A3004 RMK A01 T01970177  RH  088%=      5-min Rain = 0
KBO1 261710Z 17014KT 20/18 A3004 RMK A01 T01970177  RH  089%=      5-min Rain = 0
KBO1 261711Z 17017KT 20/18 A3004 RMK A01 T01970177  RH  088%=      5-min Rain = 0
KBO1 261712Z 16016KT 20/18 A3004 RMK A01 T01980177  RH  088%=      5-min Rain = 0
KBO1 261713Z 17016KT 20/18 A3004 RMK A01 T01980176  RH  087%=      5-min Rain = 0
KBO1 261714Z 17017KT 20/18 A3004 RMK A01 T01980176  RH  087%=      5-min Rain = 0
KBO1 261715Z 16016KT 20/18 A3004 RMK A01 T01980177  RH  088%=      5-min Rain = 0
KBO1 261716Z 17013KT 20/18 A3004 RMK A01 T01980178  RH  088%=      5-min Rain = 0
KBO1 261717Z 16015KT 20/18 A3004 RMK A01 T01990178  RH  088%=      5-min Rain = 0
KBO1 261718Z 17017KT 20/18 A3004 RMK A01 T01990177  RH  087%=      5-min Rain = 0
KBO1 261719Z 16017KT 20/18 A3004 RMK A01 T01990177  RH  087%=      5-min Rain = 0
KBO1 261720Z 17015KT 20/18 A3004 RMK A01 T01990176  RH  087%=      5-min Rain = 0
KBO1 261721Z 17015KT 20/18 A3004 RMK A01 T02000176  RH  086%=      5-min Rain = 0
KBO1 261722Z 17018KT 20/18 A3004 RMK A01 T02000177  RH  086%=      5-min Rain = 0
KBO1 261723Z 17017KT 20/18 A3004 RMK A01 T02010176  RH  086%=      5-min Rain = 0
KBO1 261724Z 17015KT 20/18 A3004 RMK A01 T02010177  RH  086%=      5-min Rain = 0
KBO1 261725Z 17016KT 20/18 A3004 RMK A01 T02010177  RH  086%=      5-min Rain = 0
KBO1 261726Z 17017KT 20/18 A3004 RMK A01 T02010176  RH  085%=      5-min Rain = 0
KBO1 261727Z 17014KT 20/18 A3004 RMK A01 T02020177  RH  086%=      5-min Rain = 0
KBO1 261728Z 17014KT 20/18 A3003 RMK A01 T02020178  RH  086%=      5-min Rain = 0
KBO1 261729Z 18012KT 20/18 A3003 RMK A01 T02030179  RH  086%=      5-min Rain = 0
KBO1 261730Z 17017KT 20/18 A3003 RMK A01 T02040178  RH  085%=      5-min Rain = 0
KBO1 261731Z 18015KT 20/18 A3003 RMK A01 T02040177  RH  085%=      5-min Rain = 0
KBO1 261732Z 17015KT 20/18 A3003 RMK A01 T02040177  RH  085%=      5-min Rain = 0
KBO1 261733Z 17015KT 21/18 A3003 RMK A01 T02050179  RH  085%=      5-min Rain = 0
KBO1 261734Z 17019KT 21/18 A3003 RMK A01 T02060177  RH  083%=      5-min Rain = 0
KBO1 261735Z 17014G19KT 21/18 A3004 RMK A01 T02050176  RH  083%=      5-min Rain = 0
KBO1 261736Z 17012KT 21/18 A3003 RMK A01 T02050179  RH  085%=      5-min Rain = 0
KBO1 261737Z 17015KT 21/18 A3003 RMK A01 T02060178  RH  084%=      5-min Rain = 0
KBO1 261738Z 17016KT 21/18 A3003 RMK A01 T02070178  RH  084%=      5-min Rain = 0
KBO1 261739Z 17017G22KT 21/18 A3003 RMK A01 T02070177  RH  083%=      5-min Rain = 0
KBO1 261740Z 17017KT 21/18 A3004 RMK A01 T02060177  RH  083%=      5-min Rain = 0
KBO1 261741Z 17017KT 21/18 A3004 RMK A01 T02060177  RH  083%=      5-min Rain = 0
KBO1 261742Z 17014KT 21/18 A3003 RMK A01 T02070178  RH  083%=      5-min Rain = 0
KBO1 261743Z 16016KT 21/18 A3003 RMK A01 T02070178  RH  083%=      5-min Rain = 0
KBO1 261744Z 17013KT 21/18 A3003 RMK A01 T02080177  RH  083%=      5-min Rain = 0
KBO1 261745Z 17013KT 21/18 A3003 RMK A01 T02080178  RH  083%=      5-min Rain = 0
KBO1 261746Z 16013KT 21/18 A3003 RMK A01 T02090180  RH  083%=      5-min Rain = 0
KBO1 261747Z 16015KT 21/18 A3003 RMK A01 T02100181  RH  084%=      5-min Rain = 0
KBO1 261748Z 16018KT 21/18 A3003 RMK A01 T02110178  RH  082%=      5-min Rain = 0
KBO1 261749Z 17016KT 21/18 A3003 RMK A01 T02100177  RH  081%=      5-min Rain = 0
KBO1 261750Z 16014KT 21/18 A3003 RMK A01 T02090178  RH  083%=      5-min Rain = 0
KBO1 261751Z 17016KT 21/18 A3003 RMK A01 T02090178  RH  083%=      5-min Rain = 0
KBO1 261752Z 17017KT 21/18 A3003 RMK A01 T02090177  RH  082%=      5-min Rain = 0
KBO1 261753Z 17016KT 21/18 A3003 RMK A01 T02080178  RH  083%=      5-min Rain = 0
KBO1 261754Z 17016KT 21/18 A3003 RMK A01 T02080178  RH  083%=      5-min Rain = 0
KBO1 261755Z 17017KT 21/18 A3003 RMK A01 T02080178  RH  082%=      5-min Rain = 0
KBO1 261756Z 17017KT 21/18 A3004 RMK A01 T02080177  RH  082%=      5-min Rain = 0
KBO1 261757Z 17018KT 21/18 A3004 RMK A01 T02080177  RH  082%=      5-min Rain = 0
KBO1 261758Z 17017KT 21/18 A3004 RMK A01 T02070177  RH  083%=      5-min Rain = 0
KBO1 261759Z 17014KT 21/18 A3004 RMK A01 T02060178  RH  084%=      5-min Rain = 0
KBO1 261800Z 17016KT 21/18 A3003 RMK A01 T02060179  RH  085%=      5-min Rain = 0
KBO1 261801Z 17015G20KT 21/18 A3003 RMK A01 T02060177  RH  084%=      5-min Rain = 0
KBO1 261802Z 17013KT 21/18 A3003 RMK A01 T02060179  RH  084%=      5-min Rain = 0
KBO1 261803Z 18015KT 21/18 A3003 RMK A01 T02070179  RH  084%=      5-min Rain = 0
KBO1 261804Z 18017KT 21/18 A3003 RMK A01 T02080178  RH  083%=      5-min Rain = 0
KBO1 261805Z 18016KT 21/18 A3004 RMK A01 T02070178  RH  083%=      5-min Rain = 0
KBO1 261806Z 18016KT 21/18 A3004 RMK A01 T02070178  RH  084%=      5-min Rain = 0
KBO1 261807Z 18019KT 21/18 A3004 RMK A01 T02060178  RH  084%=      5-min Rain = 0
KBO1 261808Z 17019KT 21/18 A3004 RMK A01 T02060176  RH  083%=      5-min Rain = 0
KBO1 261809Z 17017KT 21/18 A3003 RMK A01 T02060177  RH  083%=      5-min Rain = 0
KBO1 261810Z 17014KT 21/18 A3002 RMK A01 T02060177  RH  083%=      5-min Rain = 0
KBO1 261811Z 17014KT 21/18 A3002 RMK A01 T02060176  RH  083%=      5-min Rain = 0
KBO1 261812Z 17014KT 21/18 A3002 RMK A01 T02060177  RH  083%=      5-min Rain = 0
KBO1 261813Z 16014KT 21/18 A3002 RMK A01 T02080179  RH  083%=      5-min Rain = 0
KBO1 261814Z 15014KT 21/18 A3001 RMK A01 T02100178  RH  082%=      5-min Rain = 0
KBO1 261815Z 16015KT 21/18 A3001 RMK A01 T02110178  RH  082%=      5-min Rain = 0
KBO1 261816Z 16015KT 21/18 A3001 RMK A01 T02120178  RH  081%=      5-min Rain = 0
KBO1 261817Z 17017KT 21/18 A3001 RMK A01 T02130178  RH  081%=      5-min Rain = 0
KBO1 261818Z 17015KT 21/18 A3001 RMK A01 T02130179  RH  081%=      5-min Rain = 0
KBO1 261819Z 18013KT 21/18 A3001 RMK A01 T02130179  RH  081%=      5-min Rain = 0
KBO1 261820Z 17012KT 21/18 A3001 RMK A01 T02140178  RH  080%=      5-min Rain = 0
KBO1 261821Z 17012KT 21/18 A30 RMK A01 T02140179  RH  080%=      5-min Rain = 0
KBO1 261822Z 17013KT 21/18 A30 RMK A01 T02130177  RH  080%=      5-min Rain = 0
KBO1 261823Z 17014KT 21/18 A30 RMK A01 T02130177  RH  080%=      5-min Rain = 0
KBO1 261824Z 16011KT 21/18 A30 RMK A01 T02140178  RH  080%=      5-min Rain = 0
KBO1 261825Z 17012KT 21/18 A30 RMK A01 T02140177  RH  079%=      5-min Rain = 0
KBO1 261826Z 16010KT 21/18 A2999 RMK A01 T02140177  RH  079%=      5-min Rain = 0
KBO1 261827Z 17011KT 21/18 A30 RMK A01 T02140178  RH  080%=      5-min Rain = 0
KBO1 261828Z 17014G19KT 21/18 A3001 RMK A01 T02140178  RH  080%=      5-min Rain = 0
KBO1 261829Z 18017KT 22/18 A3001 RMK A01 T02150179  RH  080%=      5-min Rain = 0
KBO1 261830Z 18017KT 22/18 A3002 RMK A01 T02150179  RH  080%=      5-min Rain = 0
KBO1 261831Z 18014G19KT 22/18 A3001 RMK A01 T02150178  RH  079%=      5-min Rain = 0
KBO1 261832Z 17016KT 22/18 A3001 RMK A01 T02160179  RH  079%=      5-min Rain = 0
KBO1 261833Z 18018KT 22/18 A3001 RMK A01 T02160176  RH  078%=      5-min Rain = 0
KBO1 261834Z 18018KT 22/18 A3002 RMK A01 T02150178  RH  079%=      5-min Rain = 0
KBO1 261835Z 18020KT 21/18 A3002 RMK A01 T02140179  RH  080%=      5-min Rain = 0
KBO1 261836Z 17016KT 21/18 A3002 RMK A01 T02130178  RH  080%=      5-min Rain = 0
KBO1 261837Z 16018KT 21/18 A3002 RMK A01 T02130179  RH  081%=      5-min Rain = 0
KBO1 261838Z 17021KT 21/18 A3002 RMK A01 T02140177  RH  080%=      5-min Rain = 0
KBO1 261839Z 17020G25KT 21/18 A3003 RMK A01 T02130177  RH  080%=      5-min Rain = 0
KBO1 261840Z 17022KT 21/18 A3003 RMK A01 T02130177  RH  080%=      5-min Rain = 0
KBO1 261841Z 17021KT 21/18 A3003 RMK A01 T02140177  RH  080%=      5-min Rain = 0
KBO1 261842Z 17018G24KT 21/18 A3003 RMK A01 T02130178  RH  080%=      5-min Rain = 0
KBO1 261843Z 17022KT 21/18 A3003 RMK A01 T02140177  RH  080%=      5-min Rain = 0
KBO1 261844Z 17021KT 21/18 A3003 RMK A01 T02140175  RH  078%=      5-min Rain = 0
KBO1 261845Z 17021KT 21/18 A3003 RMK A01 T02140175  RH  079%=      5-min Rain = 0
KBO1 261846Z 17019KT 21/18 A3003 RMK A01 T02130176  RH  079%=      5-min Rain = 0
KBO1 261847Z 17019KT 21/18 A3003 RMK A01 T02130176  RH  079%=      5-min Rain = 0
KBO1 261848Z 17017KT 21/18 A3003 RMK A01 T02140177  RH  079%=      5-min Rain = 0
KBO1 261849Z 16018KT 21/18 A3003 RMK A01 T02140176  RH  079%=      5-min Rain = 0
KBO1 261850Z 17021KT 21/18 A3002 RMK A01 T02140175  RH  078%=      5-min Rain = 0
KBO1 261851Z 16021G27KT 22/18 A3002 RMK A01 T02150175  RH  078%=      5-min Rain = 0
KBO1 261852Z 16019G24KT 22/18 A3002 RMK A01 T02150175  RH  078%=      5-min Rain = 0
KBO1 261853Z 16017KT 22/18 A3002 RMK A01 T02160176  RH  078%=      5-min Rain = 0
KBO1 261854Z 17021KT 22/18 A3002 RMK A01 T02180177  RH  077%=      5-min Rain = 0
KBO1 261855Z 17019KT 22/18 A3002 RMK A01 T02180175  RH  077%=      5-min Rain = 0
KBO1 261856Z 16016G21KT 22/18 A3002 RMK A01 T02180177  RH  077%=      5-min Rain = 0
KBO1 261857Z 16020KT 22/18 A3002 RMK A01 T02190177  RH  077%=      5-min Rain = 0
KBO1 261858Z 16019KT 22/18 A3002 RMK A01 T02190176  RH  077%=      5-min Rain = 0
KBO1 261859Z 17017G22KT 22/18 A3002 RMK A01 T02180177  RH  077%=      5-min Rain = 0
KBO1 261900Z 15016KT 22/18 A3001 RMK A01 T02180178  RH  078%=      5-min Rain = 0
KBO1 261901Z 16014KT 22/18 A3001 RMK A01 T02180179  RH  078%=      5-min Rain = 0
KBO1 261902Z 16015KT 22/18 A3001 RMK A01 T02180179  RH  078%=      5-min Rain = 0
KBO1 261903Z 16019KT 22/18 A3001 RMK A01 T02180177  RH  077%=      5-min Rain = 0
KBO1 261904Z 16017KT 22/18 A3001 RMK A01 T02180177  RH  077%=      5-min Rain = 0
KBO1 261905Z 17018KT 22/18 A3001 RMK A01 T02180178  RH  078%=      5-min Rain = 0
KBO1 261906Z 17020KT 22/18 A3001 RMK A01 T02170177  RH  078%=      5-min Rain = 0
KBO1 261907Z 16020KT 22/18 A3001 RMK A01 T02160177  RH  078%=      5-min Rain = 0
KBO1 261908Z 17019KT 22/18 A3002 RMK A01 T02150176  RH  078%=      5-min Rain = 0
KBO1 261909Z 17019KT 21/18 A3002 RMK A01 T02140176  RH  079%=      5-min Rain = 0
KBO1 261910Z 16020KT 21/18 A3002 RMK A01 T02140176  RH  079%=      5-min Rain = 0
KBO1 261911Z 17016KT 21/18 A3002 RMK A01 T02130177  RH  080%=      5-min Rain = 0
KBO1 261912Z 17017KT 21/18 A3002 RMK A01 T02140177  RH  079%=      5-min Rain = 0
KBO1 261913Z 17018KT 21/18 A3002 RMK A01 T02140175  RH  078%=      5-min Rain = 0
KBO1 261914Z 17017KT 22/18 A3002 RMK A01 T02150176  RH  079%=      5-min Rain = 0
KBO1 261915Z 17016KT 21/18 A3002 RMK A01 T02140176  RH  079%=      5-min Rain = 0
KBO1 261916Z 16016KT 21/18 A3002 RMK A01 T02140175  RH  078%=      5-min Rain = 0
KBO1 261917Z 17014KT 21/17 A3002 RMK A01 T02140174  RH  078%=      5-min Rain = 0
KBO1 261918Z 16016KT 21/18 A3001 RMK A01 T02140177  RH  079%=      5-min Rain = 0
KBO1 261919Z 16017KT 21/18 A3001 RMK A01 T02140176  RH  078%=      5-min Rain = 0
KBO1 261920Z 16016KT 21/18 A3001 RMK A01 T02140175  RH  078%=      5-min Rain = 0
KBO1 261921Z 16017KT 21/18 A3001 RMK A01 T02140175  RH  078%=      5-min Rain = 0
KBO1 261922Z 17015KT 22/18 A3001 RMK A01 T02150176  RH  078%=      5-min Rain = 0
KBO1 261923Z 16014KT 22/18 A3001 RMK A01 T02150175  RH  078%=      5-min Rain = 0
KBO1 261924Z 16014KT 22/18 A3001 RMK A01 T02170177  RH  078%=      5-min Rain = 0
KBO1 261925Z 16015KT 22/18 A3001 RMK A01 T02180176  RH  077%=      5-min Rain = 0
KBO1 261926Z 16015KT 22/18 A3001 RMK A01 T02180175  RH  077%=      5-min Rain = 0
KBO1 261927Z 17013G18KT 22/18 A3001 RMK A01 T02190178  RH  078%=      5-min Rain = 0
KBO1 261928Z 18017KT 22/18 A3001 RMK A01 T02200176  RH  076%=      5-min Rain = 0
KBO1 261929Z 16018KT 22/18 A3001 RMK A01 T02210177  RH  076%=      5-min Rain = 0
KBO1 261930Z 16017KT 22/18 A3001 RMK A01 T02220176  RH  075%=      5-min Rain = 0
KBO1 261931Z 16014KT 22/18 A3001 RMK A01 T02220178  RH  076%=      5-min Rain = 0
KBO1 261932Z 16014G19KT 22/18 A3001 RMK A01 T02230180  RH  077%=      5-min Rain = 0
KBO1 261933Z 16019KT 23/18 A3001 RMK A01 T02250178  RH  075%=      5-min Rain = 0
KBO1 261934Z 16020KT 23/18 A3001 RMK A01 T02250176  RH  074%=      5-min Rain = 0
KBO1 261935Z 16017KT 22/18 A3001 RMK A01 T02240177  RH  075%=      5-min Rain = 0
KBO1 261936Z 17017KT 23/18 A3001 RMK A01 T02250179  RH  075%=      5-min Rain = 0
KBO1 261937Z 16021KT 23/18 A3001 RMK A01 T02260177  RH  074%=      5-min Rain = 0
KBO1 261938Z 16017KT 23/18 A30 RMK A01 T02260176  RH  073%=      5-min Rain = 0
KBO1 261939Z 16019KT 23/18 A30 RMK A01 T02260178  RH  074%=      5-min Rain = 0
KBO1 261940Z 15020KT 23/18 A30 RMK A01 T02250178  RH  075%=      5-min Rain = 0
KBO1 261941Z 15018G23KT 22/18 A30 RMK A01 T02240179  RH  076%=      5-min Rain = 0
KBO1 261942Z 15019G24KT 22/18 A3001 RMK A01 T02230180  RH  076%=      5-min Rain = 0
KBO1 261943Z 15017KT 22/18 A30 RMK A01 T02230179  RH  076%=      5-min Rain = 0
KBO1 261944Z 16018KT 22/18 A30 RMK A01 T02230180  RH  077%=      5-min Rain = 0
KBO1 261945Z 17020KT 22/18 A30 RMK A01 T02230179  RH  076%=      5-min Rain = 0
KBO1 261946Z 17020G25KT 22/18 A30 RMK A01 T02230176  RH  075%=      5-min Rain = 0
KBO1 261947Z 16017KT 22/18 A30 RMK A01 T02240175  RH  074%=      5-min Rain = 0
KBO1 261948Z 16018KT 22/18 A30 RMK A01 T02240177  RH  074%=      5-min Rain = 0
KBO1 261949Z 17019G24KT 23/18 A30 RMK A01 T02250178  RH  075%=      5-min Rain = 0
KBO1 261950Z 16018G24KT 23/18 A30 RMK A01 T02250180  RH  076%=      5-min Rain = 0
KBO1 261951Z 16020KT 23/18 A30 RMK A01 T02250178  RH  075%=      5-min Rain = 0
KBO1 261952Z 15019KT 22/18 A30 RMK A01 T02230178  RH  076%=      5-min Rain = 0
KBO1 261953Z 16021KT 22/18 A30 RMK A01 T02220178  RH  076%=      5-min Rain = 0
KBO1 261954Z 16019KT 22/18 A2999 RMK A01 T02220177  RH  076%=      5-min Rain = 0
KBO1 261955Z 16019KT 22/18 A2999 RMK A01 T02220179  RH  076%=      5-min Rain = 0
KBO1 261956Z 16019KT 22/18 A2999 RMK A01 T02220177  RH  075%=      5-min Rain = 0
KBO1 261957Z 15020G26KT 22/18 A2999 RMK A01 T02210177  RH  076%=      5-min Rain = 0
KBO1 261958Z 16020KT 22/18 A2999 RMK A01 T02200176  RH  076%=      5-min Rain = 0
KBO1 261959Z 16019KT 22/18 A2999 RMK A01 T02190177  RH  077%=      5-min Rain = 0
KBO1 262000Z 16019KT 22/18 A2999 RMK A01 T02190177  RH  077%=      5-min Rain = 0
KBO1 262001Z 17018G23KT 22/18 A2999 RMK A01 T02200178  RH  077%=      5-min Rain = 0
KBO1 262002Z 16021KT 22/18 A2999 RMK A01 T02200177  RH  076%=      5-min Rain = 0
KBO1 262003Z 16020KT 22/18 A2998 RMK A01 T02200175  RH  076%=      5-min Rain = 0
KBO1 262004Z 17019KT 22/18 A2998 RMK A01 T02200176  RH  076%=      5-min Rain = 0
KBO1 262005Z 17017G22KT 22/18 A2998 RMK A01 T02210178  RH  077%=      5-min Rain = 0
KBO1 262006Z 17021KT 22/18 A2998 RMK A01 T02210176  RH  076%=      5-min Rain = 0
KBO1 262007Z 17020KT 22/18 A2998 RMK A01 T02210176  RH  075%=      5-min Rain = 0
KBO1 262008Z 16020KT 22/18 A2998 RMK A01 T02210176  RH  076%=      5-min Rain = 0
KBO1 262009Z 16018KT 22/18 A2997 RMK A01 T02210176  RH  075%=      5-min Rain = 0
KBO1 262010Z 16018KT 22/18 A2997 RMK A01 T02210177  RH  076%=      5-min Rain = 0
KBO1 262011Z 16015KT 22/18 A2997 RMK A01 T02210177  RH  076%=      5-min Rain = 0
KBO1 262012Z 16015KT 22/18 A2997 RMK A01 T02220179  RH  077%=      5-min Rain = 0
KBO1 262013Z 16016KT 22/18 A2997 RMK A01 T02240179  RH  076%=      5-min Rain = 0
KBO1 262014Z 17019KT 23/18 A2998 RMK A01 T02250178  RH  075%=      5-min Rain = 0
KBO1 262015Z 17018KT 23/18 A2997 RMK A01 T02260177  RH  074%=      5-min Rain = 0
KBO1 262016Z 17017KT 23/18 A2997 RMK A01 T02260177  RH  074%=      5-min Rain = 0
KBO1 262017Z 17014KT 23/18 A2997 RMK A01 T02270180  RH  074%=      5-min Rain = 0
KBO1 262018Z 16016KT 23/18 A2997 RMK A01 T02290181  RH  074%=      5-min Rain = 0
KBO1 262019Z 17016KT 23/18 A2997 RMK A01 T02310178  RH  072%=      5-min Rain = 0
KBO1 262020Z 16016KT 23/18 A2997 RMK A01 T02310179  RH  072%=      5-min Rain = 0
KBO1 262021Z 16016KT 23/18 A2997 RMK A01 T02310179  RH  072%=      5-min Rain = 0
KBO1 262022Z 16020KT 23/18 A2998 RMK A01 T02320176  RH  071%=      5-min Rain = 0
KBO1 262023Z 17018KT 23/18 A2998 RMK A01 T02320176  RH  070%=      5-min Rain = 0
KBO1 262024Z 16016G21KT 23/18 A2999 RMK A01 T02330180  RH  072%=      5-min Rain = 0
KBO1 262025Z 16024KT 24/18 A2999 RMK A01 T02360179  RH  071%=      5-min Rain = 0
KBO1 262026Z 17026KT 23/18 A2999 RMK A01 T02330177  RH  070%=      5-min Rain = 0
KBO1 262027Z 17021G28KT 23/18 A30 RMK A01 T02290177  RH  073%=      5-min Rain = 0
KBO1 262028Z 16021G27KT 23/18 A30 RMK A01 T02280180  RH  075%=      5-min Rain = 0
KBO1 262029Z 16020G26KT 23/18 A30 RMK A01 T02280179  RH  074%=      5-min Rain = 0
KBO1 262030Z 17022G28KT 23/18 A2999 RMK A01 T02270179  RH  074%=      5-min Rain = 0
KBO1 262031Z 17024KT 23/18 A2999 RMK A01 T02260178  RH  074%=      5-min Rain = 0
KBO1 262032Z 17024G30KT 23/18 A2999 RMK A01 T02250176  RH  074%=      5-min Rain = 0
KBO1 262033Z 16026G31KT 22/17 A2999 RMK A01 T02240174  RH  073%=      5-min Rain = 0
KBO1 262034Z 16024G29KT 22/18 A2998 RMK A01 T02240175  RH  074%=      5-min Rain = 0
KBO1 262035Z 16024KT 22/17 A2998 RMK A01 T02240174  RH  073%=      5-min Rain = 0
KBO1 262036Z 16026KT 23/17 A2998 RMK A01 T02250174  RH  073%=      5-min Rain = 0
KBO1 262037Z 16023KT 23/17 A2998 RMK A01 T02250174  RH  073%=      5-min Rain = 0
KBO1 262038Z 17024KT 23/17 A2997 RMK A01 T02260172  RH  072%=      5-min Rain = 0
KBO1 262039Z 17023KT 23/17 A2997 RMK A01 T02280171  RH  070%=      5-min Rain = 0
KBO1 262040Z 17020G25KT 23/17 A2997 RMK A01 T02280172  RH  070%=      5-min Rain = 0
KBO1 262041Z 17018KT 23/18 A2997 RMK A01 T02320176  RH  071%=      5-min Rain = 0
KBO1 262042Z 18020KT 23/18 A2997 RMK A01 T02340175  RH  069%=      5-min Rain = 0
KBO1 262043Z 17020G25KT 24/17 A2997 RMK A01 T02360174  RH  068%=      5-min Rain = 0
KBO1 262044Z 16020KT 24/17 A2997 RMK A01 T02370174  RH  068%=      5-min Rain = 0
KBO1 262045Z 16020G25KT 24/17 A2997 RMK A01 T02380171  RH  066%=      5-min Rain = 0
KBO1 262046Z 16023G28KT 24/17 A2996 RMK A01 T02380167  RH  065%=      5-min Rain = 0
KBO1 262047Z 16024KT 24/17 A2996 RMK A01 T02360168  RH  066%=      5-min Rain = 0
KBO1 262048Z 17022KT 24/17 A2996 RMK A01 T02350167  RH  066%=      5-min Rain = 0
KBO1 262049Z 16023G29KT 23/17 A2996 RMK A01 T02340168  RH  067%=      5-min Rain = 0
KBO1 262050Z 16022KT 23/17 A2995 RMK A01 T02330169  RH  067%=      5-min Rain = 0
KBO1 262051Z 16020KT 23/17 A2995 RMK A01 T02330168  RH  067%=      5-min Rain = 0
KBO1 262052Z 16019KT 23/17 A2995 RMK A01 T02330170  RH  067%=      5-min Rain = 0
KBO1 262053Z 16016KT 24/17 A2995 RMK A01 T02350171  RH  067%=      5-min Rain = 0
KBO1 262054Z 16022KT 24/17 A2995 RMK A01 T02360168  RH  066%=      5-min Rain = 0
KBO1 262055Z 17019KT 24/17 A2995 RMK A01 T02360167  RH  065%=      5-min Rain = 0
KBO1 262056Z 16021KT 24/17 A2995 RMK A01 T02370170  RH  066%=      5-min Rain = 0
KBO1 262057Z 16023KT 24/17 A2995 RMK A01 T02380168  RH  065%=      5-min Rain = 0
KBO1 262058Z 16023KT 24/17 A2995 RMK A01 T02390166  RH  064%=      5-min Rain = 0
KBO1 262059Z 16019KT 24/17 A2995 RMK A01 T02400171  RH  065%=      5-min Rain = 0
KBO1 262100Z 16022G27KT 24/17 A2995 RMK A01 T02410173  RH  065%=      5-min Rain = 0
KBO1 262101Z 16022KT 24/17 A2995 RMK A01 T02410168  RH  064%=      5-min Rain = 0
KBO1 262102Z 17019G24KT 24/17 A2995 RMK A01 T02400171  RH  065%=      5-min Rain = 0
KBO1 262103Z 16021KT 24/17 A2995 RMK A01 T02400167  RH  063%=      5-min Rain = 0
KBO1 262104Z 18019G26KT 24/17 A2995 RMK A01 T02380167  RH  065%=      5-min Rain = 0
KBO1 262105Z 18020KT 24/16 A2995 RMK A01 T02370163  RH  063%=      5-min Rain = 0
KBO1 262106Z 18024KT 24/16 A2995 RMK A01 T02380160  RH  062%=      5-min Rain = 0
KBO1 262107Z 18024KT 24/16 A2995 RMK A01 T02410160  RH  061%=      5-min Rain = 0
KBO1 262108Z 17022KT 24/16 A2995 RMK A01 T02430158  RH  059%=      5-min Rain = 0
KBO1 262109Z 17018KT 24/16 A2995 RMK A01 T02430163  RH  061%=      5-min Rain = 0
KBO1 262110Z 18017KT 24/17 A2995 RMK A01 T02440165  RH  061%=      5-min Rain = 0
KBO1 262111Z 18015KT 25/17 A2995 RMK A01 T02470168  RH  061%=      5-min Rain = 0
KBO1 262112Z 18018KT 25/16 A2994 RMK A01 T02510164  RH  058%=      5-min Rain = 0
KBO1 262113Z 18020G25KT 25/16 A2994 RMK A01 T02520157  RH  056%=      5-min Rain = 0
KBO1 262114Z 18018KT 25/15 A2994 RMK A01 T02510148  RH  053%=      5-min Rain = 0
KBO1 262115Z 18019G25KT 25/15 A2994 RMK A01 T02520149  RH  053%=      5-min Rain = 0
KBO1 262116Z 19022KT 25/15 A2994 RMK A01 T02540145  RH  051%=      5-min Rain = 0
KBO1 262117Z 18024KT 26/14 A2994 RMK A01 T02550139  RH  049%=      5-min Rain = 0
KBO1 262118Z 18024KT 26/14 A2993 RMK A01 T02550141  RH  049%=      5-min Rain = 0
KBO1 262119Z 18021G26KT 25/15 A2993 RMK A01 T02540145  RH  051%=      5-min Rain = 0
KBO1 262120Z 18020KT 26/14 A2993 RMK A01 T02560144  RH  050%=      5-min Rain = 0
KBO1 262121Z 18021KT 26/14 A2993 RMK A01 T02570139  RH  048%=      5-min Rain = 0
KBO1 262122Z 18022KT 26/14 A2993 RMK A01 T02570143  RH  049%=      5-min Rain = 0
KBO1 262123Z 18025KT 26/14 A2993 RMK A01 T02580142  RH  049%=      5-min Rain = 0
KBO1 262124Z 18022KT 26/14 A2993 RMK A01 T02590143  RH  049%=      5-min Rain = 0
KBO1 262125Z 18022KT 26/14 A2993 RMK A01 T02580142  RH  049%=      5-min Rain = 0
KBO1 262126Z 17021G26KT 26/15 A2993 RMK A01 T02590145  RH  049%=      5-min Rain = 0
KBO1 262127Z 17021KT 26/15 A2993 RMK A01 T02600147  RH  050%=      5-min Rain = 0
KBO1 262128Z 18023KT 26/14 A2993 RMK A01 T02600140  RH  047%=      5-min Rain = 0
KBO1 262129Z 18023KT 26/14 A2993 RMK A01 T02610142  RH  048%=      5-min Rain = 0
KBO1 262130Z 17021G26KT 26/14 A2993 RMK A01 T02610142  RH  048%=      5-min Rain = 0
KBO1 262131Z 17020KT 26/14 A2993 RMK A01 T02610143  RH  048%=      5-min Rain = 0
KBO1 262132Z 17018KT 26/14 A2993 RMK A01 T02630142  RH  047%=      5-min Rain = 0
KBO1 262133Z 17022KT 27/14 A2992 RMK A01 T02650143  RH  047%=      5-min Rain = 0
KBO1 262134Z 17020KT 27/14 A2993 RMK A01 T02660139  RH  046%=      5-min Rain = 0
KBO1 262135Z 16021G28KT 27/14 A2992 RMK A01 T02670139  RH  045%=      5-min Rain = 0
KBO1 262136Z 15023KT 27/15 A2992 RMK A01 T02670146  RH  048%=      5-min Rain = 0
KBO1 262137Z 16021G27KT 27/15 A2992 RMK A01 T02670148  RH  048%=      5-min Rain = 0
KBO1 262138Z 15020G28KT 27/15 A2992 RMK A01 T02670152  RH  049%=      5-min Rain = 0
KBO1 262139Z 15023G28KT 27/15 A2992 RMK A01 T02670148  RH  048%=      5-min Rain = 0
KBO1 262140Z 14023G28KT 27/15 A2992 RMK A01 T02650150  RH  049%=      5-min Rain = 0
KBO1 262141Z 15023KT 26/15 A2992 RMK A01 T02640147  RH  049%=      5-min Rain = 0
KBO1 262142Z 15020G25KT 26/15 A2992 RMK A01 T02620151  RH  050%=      5-min Rain = 0
KBO1 262143Z 16022KT 26/15 A2992 RMK A01 T02630151  RH  050%=      5-min Rain = 0
KBO1 262144Z 16021KT 26/15 A2992 RMK A01 T02630149  RH  050%=      5-min Rain = 0
KBO1 262145Z 17018KT 26/15 A2992 RMK A01 T02630150  RH  050%=      5-min Rain = 0
KBO1 262146Z 16018KT 26/15 A2992 RMK A01 T02640148  RH  049%=      5-min Rain = 0
KBO1 262147Z 15022KT 27/15 A2992 RMK A01 T02660149  RH  049%=      5-min Rain = 0
KBO1 262148Z 16017G23KT 27/15 A2992 RMK A01 T02660148  RH  048%=      5-min Rain = 0
KBO1 262149Z 16021KT 27/14 A2992 RMK A01 T02660142  RH  046%=      5-min Rain = 0
KBO1 262150Z 16022KT 27/14 A2991 RMK A01 T02670137  RH  045%=      5-min Rain = 0
KBO1 262151Z 16018G23KT 27/13 A2991 RMK A01 T02660128  RH  042%=      5-min Rain = 0
KBO1 262152Z 15020KT 27/14 A2991 RMK A01 T02670140  RH  046%=      5-min Rain = 0
KBO1 262153Z 16021G26KT 27/14 A2991 RMK A01 T02670142  RH  046%=      5-min Rain = 0
KBO1 262154Z 16018KT 27/14 A2991 RMK A01 T02660144  RH  047%=      5-min Rain = 0
KBO1 262155Z 15020KT 27/15 A2991 RMK A01 T02650146  RH  048%=      5-min Rain = 0
KBO1 262156Z 15021KT 27/14 A2991 RMK A01 T02650143  RH  047%=      5-min Rain = 0
KBO1 262157Z 15023KT 27/14 A2991 RMK A01 T02650144  RH  047%=      5-min Rain = 0
KBO1 262158Z 15021KT 26/14 A2991 RMK A01 T02640142  RH  047%=      5-min Rain = 0
KBO1 262159Z 15019KT 26/14 A2991 RMK A01 T02640141  RH  047%=      5-min Rain = 0
KBO1 262200Z 15022KT 26/14 A2991 RMK A01 T02640140  RH  047%=      5-min Rain = 0
KBO1 262201Z 16020G25KT 27/14 A2991 RMK A01 T02650142  RH  047%=      5-min Rain = 0
KBO1 262202Z 15022KT 27/14 A2991 RMK A01 T02660143  RH  047%=      5-min Rain = 0
KBO1 262203Z 15023KT 27/14 A2991 RMK A01 T02660142  RH  047%=      5-min Rain = 0
KBO1 262204Z 15021KT 27/14 A2991 RMK A01 T02650137  RH  045%=      5-min Rain = 0
KBO1 262205Z 15020G25KT 27/14 A299 RMK A01 T02650136  RH  045%=      5-min Rain = 0
KBO1 262206Z 15020KT 26/14 A299 RMK A01 T02640140  RH  046%=      5-min Rain = 0
KBO1 262207Z 15022KT 27/14 A299 RMK A01 T02650137  RH  045%=      5-min Rain = 0
KBO1 262208Z 15022KT 27/14 A299 RMK A01 T02650136  RH  045%=      5-min Rain = 0
KBO1 262209Z 16021KT 27/14 A299 RMK A01 T02660137  RH  045%=      5-min Rain = 0
KBO1 262210Z 16020KT 27/14 A299 RMK A01 T02660141  RH  046%=      5-min Rain = 0
KBO1 262211Z 16022KT 27/14 A299 RMK A01 T02670137  RH  045%=      5-min Rain = 0
KBO1 262212Z 16021KT 27/14 A299 RMK A01 T02670135  RH  044%=      5-min Rain = 0
KBO1 262213Z 16020KT 27/13 A299 RMK A01 T02660133  RH  044%=      5-min Rain = 0
KBO1 262214Z 15021KT 27/14 A299 RMK A01 T02660135  RH  044%=      5-min Rain = 0
KBO1 262215Z 16023KT 27/14 A299 RMK A01 T02660139  RH  046%=      5-min Rain = 0
KBO1 262216Z 15021KT 27/14 A299 RMK A01 T02660141  RH  046%=      5-min Rain = 0
KBO1 262217Z 16020KT 27/14 A299 RMK A01 T02660139  RH  046%=      5-min Rain = 0
KBO1 262218Z 15020KT 27/14 A299 RMK A01 T02670140  RH  046%=      5-min Rain = 0
KBO1 262219Z 15022G27KT 27/14 A2989 RMK A01 T02680137  RH  045%=      5-min Rain = 0
KBO1 262220Z 15021G28KT 27/14 A2989 RMK A01 T02680135  RH  044%=      5-min Rain = 0
KBO1 262221Z 15022G28KT 27/13 A2989 RMK A01 T02680134  RH  044%=      5-min Rain = 0
KBO1 262222Z 15025G32KT 27/13 A2989 RMK A01 T02690129  RH  042%=      5-min Rain = 0
KBO1 262223Z 16019G26KT 27/13 A2989 RMK A01 T02680132  RH  043%=      5-min Rain = 0
KBO1 262224Z 16022G27KT 27/14 A2989 RMK A01 T02690136  RH  044%=      5-min Rain = 0
KBO1 262225Z 15022KT 27/14 A2989 RMK A01 T02690136  RH  044%=      5-min Rain = 0
KBO1 262226Z 15021G30KT 27/13 A2989 RMK A01 T02690133  RH  043%=      5-min Rain = 0
KBO1 262227Z 15024G31KT 27/13 A2989 RMK A01 T02690134  RH  043%=      5-min Rain = 0
KBO1 262228Z 15023KT 27/14 A2989 RMK A01 T02680135  RH  044%=      5-min Rain = 0
KBO1 262229Z 16022KT 27/14 A2989 RMK A01 T02670136  RH  045%=      5-min Rain = 0
KBO1 262230Z 15024KT 27/14 A2989 RMK A01 T02670141  RH  046%=      5-min Rain = 0
KBO1 262231Z 15023KT 27/14 A2989 RMK A01 T02670142  RH  046%=      5-min Rain = 0
KBO1 262232Z 15024G31KT 27/14 A2989 RMK A01 T02660143  RH  047%=      5-min Rain = 0
KBO1 262233Z 16024G29KT 27/14 A2988 RMK A01 T02660140  RH  046%=      5-min Rain = 0
KBO1 262234Z 16023KT 27/14 A2989 RMK A01 T02660139  RH  046%=      5-min Rain = 0
KBO1 262235Z 16026G31KT 27/13 A2988 RMK A01 T02660133  RH  044%=      5-min Rain = 0
KBO1 262236Z 16026KT 27/13 A2988 RMK A01 T02670128  RH  042%=      5-min Rain = 0
KBO1 262237Z 17022G27KT 27/13 A2988 RMK A01 T02670129  RH  042%=      5-min Rain = 0
KBO1 262238Z 17022KT 27/14 A2988 RMK A01 T02690135  RH  044%=      5-min Rain = 0
KBO1 262239Z 16022G27KT 27/15 A2988 RMK A01 T02700145  RH  046%=      5-min Rain = 0
KBO1 262240Z 15025G30KT 27/15 A2988 RMK A01 T02700154  RH  049%=      5-min Rain = 0
KBO1 262241Z 16026KT 27/15 A2988 RMK A01 T02670148  RH  048%=      5-min Rain = 0
KBO1 262242Z 16024G29KT 27/15 A2988 RMK A01 T02650147  RH  048%=      5-min Rain = 0
KBO1 262243Z 15025KT 26/15 A2988 RMK A01 T02640152  RH  050%=      5-min Rain = 0
KBO1 262244Z 16025G30KT 27/15 A2988 RMK A01 T02650151  RH  050%=      5-min Rain = 0
KBO1 262245Z 15025G30KT 27/15 A2988 RMK A01 T02650153  RH  050%=      5-min Rain = 0
KBO1 262246Z 16021G27KT 26/15 A2988 RMK A01 T02640154  RH  051%=      5-min Rain = 0
KBO1 262247Z 16024G33KT 27/15 A2988 RMK A01 T02650153  RH  050%=      5-min Rain = 0
KBO1 262248Z 15029G34KT 27/15 A2988 RMK A01 T02650145  RH  048%=      5-min Rain = 0
KBO1 262249Z 15026KT 26/14 A2988 RMK A01 T02640144  RH  048%=      5-min Rain = 0
KBO1 262250Z 15026KT 26/15 A2988 RMK A01 T02620145  RH  049%=      5-min Rain = 0
KBO1 262251Z 15025G32KT 26/15 A2988 RMK A01 T02610153  RH  051%=      5-min Rain = 0
KBO1 262252Z 15025G31KT 26/16 A2987 RMK A01 T02610161  RH  054%=      5-min Rain = 0
KBO1 262253Z 16023G28KT 26/16 A2987 RMK A01 T02600164  RH  055%=      5-min Rain = 0
KBO1 262254Z 16025KT 26/16 A2987 RMK A01 T02600162  RH  055%=      5-min Rain = 0
KBO1 262255Z 16028KT 26/16 A2987 RMK A01 T02600160  RH  054%=      5-min Rain = 0
KBO1 262256Z 16026KT 26/16 A2987 RMK A01 T02590159  RH  054%=      5-min Rain = 0
KBO1 262257Z 15026G32KT 26/16 A2987 RMK A01 T02580160  RH  055%=      5-min Rain = 0
KBO1 262258Z 15023G29KT 26/16 A2987 RMK A01 T02580163  RH  055%=      5-min Rain = 0
KBO1 262259Z 15029G35KT 26/16 A2987 RMK A01 T02590162  RH  055%=      5-min Rain = 0
KBO1 262300Z 16029KT 26/16 A2987 RMK A01 T02580161  RH  055%=      5-min Rain = 0
KBO1 262301Z 16025KT 26/16 A2987 RMK A01 T02560163  RH  056%=      5-min Rain = 0
KBO1 262302Z 15022G28KT 26/16 A2987 RMK A01 T02560163  RH  056%=      5-min Rain = 0
KBO1 262303Z 15030KT 26/17 A2986 RMK A01 T02570166  RH  057%=      5-min Rain = 0
KBO1 262304Z 14026G31KT 26/17 A2987 RMK A01 T02550168  RH  059%=      5-min Rain = 0
KBO1 262305Z 15028G37KT 25/17 A2987 RMK A01 T02540168  RH  059%=      5-min Rain = 0
KBO1 262306Z 15027G34KT 25/17 A2987 RMK A01 T02530168  RH  059%=      5-min Rain = 0
KBO1 262307Z 14031G36KT 25/17 A2987 RMK A01 T02540169  RH  060%=      5-min Rain = 0
KBO1 262308Z 15028G34KT 25/17 A2987 RMK A01 T02520169  RH  060%=      5-min Rain = 0
KBO1 262309Z 15027G32KT 25/17 A2987 RMK A01 T02510169  RH  060%=      5-min Rain = 0
KBO1 262310Z 15027G32KT 25/17 A2987 RMK A01 T02510171  RH  061%=      5-min Rain = 0
KBO1 262311Z 15029KT 25/17 A2987 RMK A01 T02510172  RH  061%=      5-min Rain = 0
KBO1 262312Z 15029G34KT 25/17 A2987 RMK A01 T02510173  RH  062%=      5-min Rain = 0
KBO1 262313Z 15027G33KT 25/18 A2987 RMK A01 T02500175  RH  063%=      5-min Rain = 0
KBO1 262314Z 15033KT 25/18 A2987 RMK A01 T02490176  RH  064%=      5-min Rain = 0
KBO1 262315Z 15030KT 25/18 A2987 RMK A01 T02480176  RH  064%=      5-min Rain = 0
KBO1 262316Z 15027G35KT 25/18 A2987 RMK A01 T02460176  RH  065%=      5-min Rain = 0
KBO1 262317Z 14030G35KT 25/18 A2987 RMK A01 T02460175  RH  065%=      5-min Rain = 0
KBO1 262318Z 15030G35KT 25/18 A2987 RMK A01 T02460175  RH  065%=      5-min Rain = 0
KBO1 262319Z 15024KT 25/18 A2987 RMK A01 T02460177  RH  065%=      5-min Rain = 0
KBO1 262320Z 15024G29KT 25/18 A2986 RMK A01 T02490179  RH  065%=      5-min Rain = 0
KBO1 262321Z 14031KT 25/18 A2987 RMK A01 T02510179  RH  064%=      5-min Rain = 0
KBO1 262322Z 14031G36KT 25/18 A2986 RMK A01 T02480177  RH  065%=      5-min Rain = 0
KBO1 262323Z 14031KT 24/18 A2987 RMK A01 T02430177  RH  066%=      5-min Rain = 0
KBO1 262324Z 15034G39KT 24/18 A2986 RMK A01 T02410177  RH  067%=      5-min Rain = 0
KBO1 262325Z 14027G32KT 24/18 A2987 RMK A01 T02400179  RH  069%=      5-min Rain = 0
KBO1 262326Z 15030KT 24/18 A2986 RMK A01 T02400179  RH  068%=      5-min Rain = 0
KBO1 262327Z 14030KT 24/18 A2987 RMK A01 T02410178  RH  068%=      5-min Rain = 0
KBO1 262328Z 15030KT 24/18 A2986 RMK A01 T02400179  RH  068%=      5-min Rain = 0
KBO1 262329Z 15031G37KT 24/18 A2986 RMK A01 T02410179  RH  068%=      5-min Rain = 0
KBO1 262330Z 15033G38KT 24/18 A2986 RMK A01 T02400177  RH  068%=      5-min Rain = 0
KBO1 262331Z 14029G34KT 24/18 A2986 RMK A01 T02380176  RH  069%=      5-min Rain = 0
KBO1 262332Z 15027G32KT 24/18 A2986 RMK A01 T02360176  RH  069%=      5-min Rain = 0
KBO1 262333Z 15026G32KT 24/18 A2986 RMK A01 T02360176  RH  069%=      5-min Rain = 0
KBO1 262334Z 14033G38KT 24/18 A2985 RMK A01 T02370175  RH  068%=      5-min Rain = 0
KBO1 262335Z 14032G39KT 24/17 A2985 RMK A01 T02360174  RH  068%=      5-min Rain = 0
KBO1 262336Z 15033KT 23/17 A2985 RMK A01 T02330173  RH  069%=      5-min Rain = 0
KBO1 262337Z 15034KT 23/17 A2984 RMK A01 T02320173  RH  069%=      5-min Rain = 0
KBO1 262338Z 14029G35KT 23/17 A2985 RMK A01 T02320174  RH  070%=      5-min Rain = 0
KBO1 262339Z 15028G34KT 24/18 A2985 RMK A01 T02350176  RH  070%=      5-min Rain = 0
KBO1 262340Z 14030G38KT 24/18 A2984 RMK A01 T02360177  RH  070%=      5-min Rain = 0
KBO1 262341Z 15035KT 24/18 A2984 RMK A01 T02370177  RH  069%=      5-min Rain = 0
KBO1 262342Z 15032G37KT 24/18 A2984 RMK A01 T02360177  RH  069%=      5-min Rain = 0
KBO1 262343Z 15029G37KT 24/18 A2984 RMK A01 T02360177  RH  070%=      5-min Rain = 0
KBO1 262344Z 14034G39KT 24/18 A2984 RMK A01 T02370175  RH  068%=      5-min Rain = 0
KBO1 262345Z 14033G38KT 24/17 A2984 RMK A01 T02370174  RH  068%=      5-min Rain = 0
KBO1 262346Z 15033G39KT 24/17 A2983 RMK A01 T02370174  RH  067%=      5-min Rain = 0
KBO1 262347Z 15034KT 24/17 A2983 RMK A01 T02370173  RH  067%=      5-min Rain = 0
KBO1 262348Z 15031G36KT 24/17 A2983 RMK A01 T02360172  RH  067%=      5-min Rain = 0
KBO1 262349Z 15032G37KT 23/17 A2983 RMK A01 T02340172  RH  068%=      5-min Rain = 0
KBO1 262350Z 15030G36KT 23/17 A2983 RMK A01 T02320172  RH  069%=      5-min Rain = 0
KBO1 262351Z 15034G42KT 23/17 A2983 RMK A01 T02290171  RH  069%=      5-min Rain = 0
KBO1 262352Z 16031G37KT 23/17 A2983 RMK A01 T02280169  RH  070%=      5-min Rain = 0
KBO1 262353Z 15033G38KT 23/17 A2982 RMK A01 T02260170  RH  071%=      5-min Rain = 0
KBO1 262354Z 15030G36KT 22/17 A2983 RMK A01 T02240172  RH  072%=      5-min Rain = 0
KBO1 262355Z 15030G36KT 22/17 A2982 RMK A01 T02240172  RH  072%=      5-min Rain = 0
KBO1 262356Z 16026KT 22/17 A2982 RMK A01 T02240171  RH  072%=      5-min Rain = 0
KBO1 262357Z 15029KT 22/17 A2982 RMK A01 T02240171  RH  072%=      5-min Rain = 0
KBO1 262358Z 15031G40KT 22/17 A2982 RMK A01 T02240171  RH  072%=      5-min Rain = 0
KBO1 262359Z 15031G39KT 22/17 A2981 RMK A01 T02240170  RH  071%=      5-min Rain = 0
KBO1 270000Z 15030G36KT 22/17 A2981 RMK A01 T02230169  RH  072%=      5-min Rain = 0
KBO1 270001Z 15028G35KT 22/17 A2981 RMK A01 T02230170  RH  072%=      5-min Rain = 0
KBO1 270002Z 14032G38KT 22/17 A2981 RMK A01 T02220171  RH  073%=      5-min Rain = 0
KBO1 270003Z 15029G36KT 22/17 A298 RMK A01 T02220172  RH  073%=      5-min Rain = 0
KBO1 270004Z 14026G33KT 22/17 A298 RMK A01 T02210172  RH  073%=      5-min Rain = 0
KBO1 270005Z 14029G37KT 22/17 A2979 RMK A01 T02210171  RH  073%=      5-min Rain = 0
KBO1 270006Z 14029G38KT 22/17 A2979 RMK A01 T02200171  RH  074%=      5-min Rain = 0
KBO1 270007Z 15029G34KT 22/17 A2979 RMK A01 T02190170  RH  073%=      5-min Rain = 0
KBO1 270008Z 15030G39KT 22/17 A2979 RMK A01 T02190168  RH  073%=      5-min Rain = 0
KBO1 270009Z 15029G35KT 22/17 A298 RMK A01 T02180168  RH  073%=      5-min Rain = 0
KBO1 270010Z 15029G34KT 22/17 A298 RMK A01 T02180167  RH  072%=      5-min Rain = 0
KBO1 270011Z 15027G35KT 22/17 A2981 RMK A01 T02180167  RH  072%=      5-min Rain = 0
KBO1 270012Z 15031G36KT 22/17 A2982 RMK A01 T02190167  RH  072%=      5-min Rain = 0
KBO1 270013Z 15030G37KT 22/17 A2983 RMK A01 T02190166  RH  072%=      5-min Rain = 0
KBO1 270014Z 16029KT 22/17 A2983 RMK A01 T02200166  RH  072%=      5-min Rain = 0
KBO1 270015Z 15029G36KT 22/17 A2984 RMK A01 T02200166  RH  071%=      5-min Rain = 0
KBO1 270016Z 15029G38KT 22/17 A2984 RMK A01 T02200165  RH  071%=      5-min Rain = 0
KBO1 270017Z 15029KT 22/17 A2985 RMK A01 T02200165  RH  071%=      5-min Rain = 0
KBO1 270018Z 16027G32KT 22/17 A2986 RMK A01 T02200166  RH  071%=      5-min Rain = 0
KBO1 270019Z 16023G29KT 22/17 A2987 RMK A01 T02200166  RH  072%=      5-min Rain = 0
KBO1 270020Z 16026KT 22/17 A2987 RMK A01 T02190166  RH  072%=      5-min Rain = 0
KBO1 270021Z 16028G33KT 22/17 A2987 RMK A01 T02190166  RH  072%=      5-min Rain = 0
KBO1 270022Z 16027G32KT 22/17 A2987 RMK A01 T02190166  RH  072%=      5-min Rain = 0
KBO1 270023Z 16025G30KT 22/17 A2987 RMK A01 T02190167  RH  072%=      5-min Rain = 0
KBO1 270024Z 16024KT 22/17 A2988 RMK A01 T02180167  RH  073%=      5-min Rain = 0
KBO1 270025Z 16025KT 22/17 A2988 RMK A01 T02180168  RH  073%=      5-min Rain = 0
KBO1 270026Z 16021G26KT 22/17 A2988 RMK A01 T02180168  RH  073%=      5-min Rain = 0
KBO1 270027Z 17020KT 22/17 A2989 RMK A01 T02180167  RH  073%=      5-min Rain = 0
KBO1 270028Z 16022KT 22/17 A2989 RMK A01 T02170166  RH  073%=      5-min Rain = 0
KBO1 270029Z 16023KT 22/17 A2989 RMK A01 T02170166  RH  073%=      5-min Rain = 0
KBO1 270030Z 16020KT 22/17 A2989 RMK A01 T02180166  RH  073%=      5-min Rain = 0
KBO1 270031Z 16019G25KT 22/17 A2988 RMK A01 T02170166  RH  072%=      5-min Rain = 0
KBO1 270032Z 16020KT 22/17 A2988 RMK A01 T02170165  RH  072%=      5-min Rain = 0
KBO1 270033Z 16018G25KT 22/16 A2989 RMK A01 T02170164  RH  072%=      5-min Rain = 0
KBO1 270034Z 16018G23KT 22/16 A2989 RMK A01 T02170164  RH  072%=      5-min Rain = 0
KBO1 270035Z 17019KT 22/16 A299 RMK A01 T02170164  RH  072%=      5-min Rain = 0
KBO1 270036Z 18019KT 22/17 A2991 RMK A01 T02160165  RH  072%=      5-min Rain = 0
KBO1 270037Z 19019KT 22/17 A2993 RMK A01 T02160166  RH  073%=      5-min Rain = 0
KBO1 270038Z 23025G30KT 22/17 A2996 RMK A01 T02170168  RH  074%=      5-min Rain = 0
KBO1 270039Z 25029G34KT 21/14 A2997 RMK A01 T02130140  RH  064%=      5-min Rain = 0
KBO1 270040Z 25026G31KT 19/10 A2997 RMK A01 T01900102  RH  057%=      5-min Rain = 0
KBO1 270041Z 25024G30KT 17/10 A2996 RMK A01 T01680098  RH  063%=      5-min Rain = 0
KBO1 270042Z 25024KT 15/10 A2997 RMK A01 T01540097  RH  069%=      5-min Rain = 0
KBO1 270043Z 25021G26KT 15/10 A2997 RMK A01 T01450098  RH  073%=      5-min Rain = 0
KBO1 270044Z 25019G26KT 14/10 A2997 RMK A01 T01400097  RH  075%=      5-min Rain = 0
KBO1 270045Z 24016KT 14/10 A2997 RMK A01 T01370099  RH  078%=      5-min Rain = 0
KBO1 270046Z 22012KT 13/10 A2996 RMK A01 T01340098  RH  079%=      5-min Rain = 0
KBO1 270047Z 21014G19KT 13/10 A2997 RMK A01 T01320101  RH  081%=      5-min Rain = 0
KBO1 270048Z 22016G21KT 13/10 A2997 RMK A01 T01320104  RH  083%=      5-min Rain = 0
KBO1 270049Z 24020G29KT 13/11 A2998 RMK A01 T01310109  RH  087%=      5-min Rain = 0.03
KBO1 270050Z 23025KT 13/11 A2997 RMK A01 T01280110  RH  089%=      5-min Rain = 0.03
KBO1 270051Z 23019KT 13/11 A2997 RMK A01 T01250110  RH  091%=      5-min Rain = 0.04
KBO1 270052Z 22017KT 12/11 A2997 RMK A01 T01210110  RH  093%=      5-min Rain = 0.02
KBO1 270053Z 21016KT 12/11 A2998 RMK A01 T01190111  RH  095%=      5-min Rain = 0.02
KBO1 270054Z 20017KT 12/11 A2999 RMK A01 T01180111  RH  096%=      5-min Rain = 0.03
KBO1 270055Z 20020KT 12/11 A3001 RMK A01 T01170111  RH  096%=      5-min Rain = 0.03
KBO1 270056Z 19020KT 12/11 A3001 RMK A01 T01170111  RH  096%=      5-min Rain = 0.02
KBO1 270057Z 18020G26KT 12/11 A3001 RMK A01 T01170114  RH  098%=      5-min Rain = 0.03
KBO1 270058Z 18019KT 12/12 A30 RMK A01 T01190117  RH  099%=      5-min Rain = 0.04
KBO1 270059Z 18017KT 12/12 A2999 RMK A01 T01190118  RH  099%=      5-min Rain = 0.02
KBO1 270100Z 18016KT 12/12 A2999 RMK A01 T01190117  RH  099%=      5-min Rain = 0.01
KBO1 270101Z 19016KT 12/11 A2998 RMK A01 T01170114  RH  098%=      5-min Rain = 0.03
KBO1 270102Z 20014KT 12/11 A2998 RMK A01 T01150111  RH  097%=      5-min Rain = 0.02
KBO1 270103Z 20013KT 11/11 A2997 RMK A01 T01140108  RH  096%=      5-min Rain = 0.02
KBO1 270104Z 21012KT 11/11 A2997 RMK A01 T01140106  RH  095%=      5-min Rain = 0.01
KBO1 270105Z 21010KT 11/10 A2997 RMK A01 T01140104  RH  094%=      5-min Rain = 0
KBO1 270106Z 21011KT 11/10 A2997 RMK A01 T01130103  RH  093%=      5-min Rain = 0.01
KBO1 270107Z 22009KT 11/10 A2997 RMK A01 T01130104  RH  094%=      5-min Rain = 0
KBO1 270108Z 21009KT 11/10 A2997 RMK A01 T01130104  RH  094%=      5-min Rain = 0
KBO1 270109Z 21010KT 11/11 A2996 RMK A01 T01140105  RH  095%=      5-min Rain = 0
KBO1 270110Z 21011KT 12/11 A2996 RMK A01 T01150106  RH  094%=      5-min Rain = 0
KBO1 270111Z 20010KT 12/11 A2995 RMK A01 T01180106  RH  092%=      5-min Rain = 0
KBO1 270112Z 18009KT 12/11 A2994 RMK A01 T01210107  RH  091%=      5-min Rain = 0
KBO1 270113Z 18009KT 12/11 A2994 RMK A01 T01220108  RH  091%=      5-min Rain = 0.01
KBO1 270114Z 17010KT 12/11 A2993 RMK A01 T01230107  RH  090%=      5-min Rain = 0
KBO1 270115Z 17011KT 12/11 A2994 RMK A01 T01240107  RH  089%=      5-min Rain = 0
KBO1 270116Z 17013KT 13/11 A2994 RMK A01 T01250108  RH  089%=      5-min Rain = 0
KBO1 270117Z 17013KT 13/11 A2993 RMK A01 T01260108  RH  089%=      5-min Rain = 0
KBO1 270118Z 16012KT 13/11 A2993 RMK A01 T01270109  RH  089%=      5-min Rain = 0
KBO1 270119Z 17011KT 13/11 A2992 RMK A01 T01280111  RH  089%=      5-min Rain = 0
KBO1 270120Z 17012KT 13/11 A2992 RMK A01 T01290111  RH  089%=      5-min Rain = 0
KBO1 270121Z 17011KT 13/11 A2992 RMK A01 T01300112  RH  089%=      5-min Rain = 0
KBO1 270122Z 17012KT 13/11 A2992 RMK A01 T01310112  RH  088%=      5-min Rain = 0
KBO1 270123Z 18012KT 13/11 A2992 RMK A01 T01320113  RH  088%=      5-min Rain = 0
KBO1 270124Z 18015KT 13/11 A2992 RMK A01 T01330110  RH  086%=      5-min Rain = 0
KBO1 270125Z 19015KT 14/11 A2993 RMK A01 T01350111  RH  085%=      5-min Rain = 0
KBO1 270126Z 19013KT 14/11 A2993 RMK A01 T01370111  RH  084%=      5-min Rain = 0
KBO1 270127Z 19016KT 14/11 A2993 RMK A01 T01370110  RH  083%=      5-min Rain = 0
KBO1 270128Z 19015KT 14/11 A2993 RMK A01 T01370111  RH  084%=      5-min Rain = 0
KBO1 270129Z 19015KT 14/11 A2993 RMK A01 T01370112  RH  084%=      5-min Rain = 0
KBO1 270130Z 20017KT 14/11 A2993 RMK A01 T01380111  RH  084%=      5-min Rain = 0
KBO1 270131Z 19017KT 14/11 A2994 RMK A01 T01380111  RH  084%=      5-min Rain = 0
KBO1 270132Z 19017KT 14/11 A2994 RMK A01 T01380112  RH  084%=      5-min Rain = 0
KBO1 270133Z 18016KT 14/11 A2994 RMK A01 T01380113  RH  085%=      5-min Rain = 0
KBO1 270134Z 18015KT 14/11 A2994 RMK A01 T01380113  RH  085%=      5-min Rain = 0
KBO1 270135Z 18015KT 14/11 A2994 RMK A01 T01380114  RH  086%=      5-min Rain = 0
KBO1 270136Z 18016KT 14/12 A2995 RMK A01 T01380116  RH  087%=      5-min Rain = 0
KBO1 270137Z 18016KT 14/12 A2996 RMK A01 T01380116  RH  087%=      5-min Rain = 0
KBO1 270138Z 18015KT 14/12 A2996 RMK A01 T01370117  RH  088%=      5-min Rain = 0
KBO1 270139Z 18014KT 14/12 A2996 RMK A01 T01370117  RH  087%=      5-min Rain = 0
KBO1 270140Z 19012KT 14/12 A2996 RMK A01 T01380116  RH  087%=      5-min Rain = 0
KBO1 270141Z 19012KT 14/12 A2996 RMK A01 T01380117  RH  087%=      5-min Rain = 0
KBO1 270142Z 19011KT 14/12 A2996 RMK A01 T01380117  RH  087%=      5-min Rain = 0
KBO1 270143Z 19009KT 14/12 A2995 RMK A01 T01380118  RH  088%=      5-min Rain = 0
KBO1 270144Z 19009KT 14/12 A2995 RMK A01 T01380119  RH  088%=      5-min Rain = 0
KBO1 270145Z 19010KT 14/12 A2995 RMK A01 T01380118  RH  088%=      5-min Rain = 0
KBO1 270146Z 19010KT 14/12 A2995 RMK A01 T01380119  RH  088%=      5-min Rain = 0
KBO1 270147Z 19011KT 14/12 A2995 RMK A01 T01380118  RH  088%=      5-min Rain = 0
KBO1 270148Z 18011KT 14/12 A2995 RMK A01 T01390118  RH  087%=      5-min Rain = 0
KBO1 270149Z 18012KT 14/12 A2995 RMK A01 T01400117  RH  086%=      5-min Rain = 0
KBO1 270150Z 18012KT 14/12 A2995 RMK A01 T01410118  RH  086%=      5-min Rain = 0
KBO1 270151Z 18012KT 14/12 A2995 RMK A01 T01420118  RH  086%=      5-min Rain = 0
KBO1 270152Z 18011KT 14/12 A2995 RMK A01 T01420118  RH  086%=      5-min Rain = 0
KBO1 270153Z 17012KT 14/12 A2996 RMK A01 T01420120  RH  087%=      5-min Rain = 0
KBO1 270154Z 16012KT 14/12 A2995 RMK A01 T01420120  RH  087%=      5-min Rain = 0
KBO1 270155Z 16012KT 14/12 A2995 RMK A01 T01420120  RH  087%=      5-min Rain = 0
KBO1 270156Z 17012KT 14/12 A2995 RMK A01 T01420120  RH  087%=      5-min Rain = 0
KBO1 270157Z 17010KT 14/12 A2995 RMK A01 T01420121  RH  087%=      5-min Rain = 0
KBO1 270158Z 17010KT 14/12 A2996 RMK A01 T01420122  RH  088%=      5-min Rain = 0
KBO1 270159Z 17009KT 14/12 A2996 RMK A01 T01420124  RH  088%=      5-min Rain = 0
KBO1 270200Z 17010KT 14/12 A2996 RMK A01 T01420124  RH  089%=      5-min Rain = 0
KBO1 270201Z 17009KT 14/12 A2996 RMK A01 T01420124  RH  089%=      5-min Rain = 0
KBO1 270202Z 17010KT 14/13 A2996 RMK A01 T01430125  RH  089%=      5-min Rain = 0
KBO1 270203Z 16009KT 14/13 A2996 RMK A01 T01430126  RH  090%=      5-min Rain = 0
KBO1 270204Z 15010KT 14/13 A2996 RMK A01 T01430126  RH  090%=      5-min Rain = 0
KBO1 270205Z 14009KT 14/13 A2996 RMK A01 T01430127  RH  090%=      5-min Rain = 0
KBO1 270206Z 13008KT 14/13 A2995 RMK A01 T01430127  RH  090%=      5-min Rain = 0
KBO1 270207Z 12008KT 14/13 A2995 RMK A01 T01430128  RH  091%=      5-min Rain = 0
KBO1 270208Z 12008KT 14/13 A2995 RMK A01 T01420128  RH  091%=      5-min Rain = 0
KBO1 270209Z 12009KT 14/13 A2995 RMK A01 T01410128  RH  092%=      5-min Rain = 0
KBO1 270210Z 13009KT 14/13 A2995 RMK A01 T01410127  RH  092%=      5-min Rain = 0
KBO1 270211Z 13008KT 14/13 A2995 RMK A01 T01400127  RH  092%=      5-min Rain = 0
KBO1 270212Z 13007KT 14/13 A2994 RMK A01 T01400127  RH  092%=      5-min Rain = 0
KBO1 270213Z 13008KT 14/13 A2994 RMK A01 T01400127  RH  092%=      5-min Rain = 0
KBO1 270214Z 14007KT 14/13 A2994 RMK A01 T01390126  RH  092%=      5-min Rain = 0
KBO1 270215Z 14006KT 14/13 A2994 RMK A01 T01390126  RH  091%=      5-min Rain = 0
KBO1 270216Z 15005KT 14/13 A2994 RMK A01 T01400126  RH  091%=      5-min Rain = 0
KBO1 270217Z 15005KT 14/13 A2994 RMK A01 T01390126  RH  091%=      5-min Rain = 0
KBO1 270218Z 14005KT 14/13 A2994 RMK A01 T01390126  RH  092%=      5-min Rain = 0
KBO1 270219Z 14006KT 14/13 A2994 RMK A01 T01390126  RH  092%=      5-min Rain = 0
KBO1 270220Z 14007KT 14/13 A2994 RMK A01 T01390127  RH  092%=      5-min Rain = 0
KBO1 270221Z 14006KT 14/13 A2994 RMK A01 T01380127  RH  093%=      5-min Rain = 0
KBO1 270222Z 14006KT 14/13 A2993 RMK A01 T01390127  RH  093%=      5-min Rain = 0
KBO1 270223Z 15006KT 14/13 A2993 RMK A01 T01390127  RH  093%=      5-min Rain = 0
KBO1 270224Z 15007KT 14/13 A2993 RMK A01 T01400128  RH  093%=      5-min Rain = 0
KBO1 270225Z 14007KT 14/13 A2993 RMK A01 T01400128  RH  093%=      5-min Rain = 0
KBO1 270226Z 14006KT 14/13 A2993 RMK A01 T01400129  RH  093%=      5-min Rain = 0
KBO1 270227Z 14005KT 14/13 A2993 RMK A01 T01400129  RH  093%=      5-min Rain = 0
KBO1 270228Z 13005KT 14/13 A2993 RMK A01 T01400129  RH  093%=      5-min Rain = 0
KBO1 270229Z 12004KT 14/13 A2993 RMK A01 T01400130  RH  093%=      5-min Rain = 0
KBO1 270230Z 11003KT 14/13 A2993 RMK A01 T01400130  RH  094%=      5-min Rain = 0
KBO1 270231Z 10003KT 14/13 A2993 RMK A01 T01400130  RH  094%=      5-min Rain = 0
KBO1 270232Z 09002KT 14/13 A2993 RMK A01 T01400130  RH  094%=      5-min Rain = 0
KBO1 270233Z 10001KT 14/13 A2994 RMK A01 T01390129  RH  094%=      5-min Rain = 0
KBO1 270234Z 07001KT 14/13 A2994 RMK A01 T01390129  RH  094%=      5-min Rain = 0
KBO1 270235Z 07000KT 14/13 A2994 RMK A01 T01380129  RH  094%=      5-min Rain = 0
KBO1 270236Z 04001KT 14/13 A2994 RMK A01 T01380129  RH  094%=      5-min Rain = 0
KBO1 270237Z 06002KT 14/13 A2994 RMK A01 T01370129  RH  095%=      5-min Rain = 0
KBO1 270238Z 07003KT 14/13 A2994 RMK A01 T01370129  RH  095%=      5-min Rain = 0
KBO1 270239Z 08004KT 14/13 A2994 RMK A01 T01360130  RH  096%=      5-min Rain = 0
KBO1 270240Z 09004KT 14/13 A2995 RMK A01 T01360130  RH  096%=      5-min Rain = 0
KBO1 270241Z 10004KT 14/13 A2994 RMK A01 T01360131  RH  097%=      5-min Rain = 0
KBO1 270242Z 09005KT 14/13 A2994 RMK A01 T01360132  RH  098%=      5-min Rain = 0
KBO1 270243Z 11005KT 14/13 A2994 RMK A01 T01360132  RH  098%=      5-min Rain = 0
KBO1 270244Z 12004KT 14/13 A2994 RMK A01 T01360132  RH  098%=      5-min Rain = 0
KBO1 270245Z 14005KT 14/13 A2993 RMK A01 T01360133  RH  098%=      5-min Rain = 0
KBO1 270246Z 14006KT 14/13 A2993 RMK A01 T01380134  RH  098%=      5-min Rain = 0
KBO1 270247Z 14005KT 14/14 A2993 RMK A01 T01390135  RH  098%=      5-min Rain = 0
KBO1 270248Z 15005KT 14/14 A2993 RMK A01 T01400136  RH  097%=      5-min Rain = 0
KBO1 270249Z 15005KT 14/14 A2993 RMK A01 T01410136  RH  097%=      5-min Rain = 0
KBO1 270250Z 15004KT 14/14 A2993 RMK A01 T01420136  RH  096%=      5-min Rain = 0
KBO1 270251Z 14004KT 14/14 A2993 RMK A01 T01430137  RH  096%=      5-min Rain = 0
KBO1 270252Z 15004KT 14/14 A2993 RMK A01 T01430137  RH  096%=      5-min Rain = 0
KBO1 270253Z 15004KT 14/14 A2993 RMK A01 T01430137  RH  096%=      5-min Rain = 0
KBO1 270254Z 15003KT 14/14 A2993 RMK A01 T01430137  RH  096%=      5-min Rain = 0
KBO1 270255Z 16003KT 14/14 A2993 RMK A01 T01440137  RH  096%=      5-min Rain = 0
KBO1 270256Z 17003KT 14/14 A2993 RMK A01 T01440137  RH  096%=      5-min Rain = 0
KBO1 270257Z 17003KT 14/14 A2993 RMK A01 T01440137  RH  095%=      5-min Rain = 0
KBO1 270258Z 17002KT 14/14 A2993 RMK A01 T01440137  RH  095%=      5-min Rain = 0
KBO1 270259Z 18001KT 14/14 A2993 RMK A01 T01440137  RH  095%=      5-min Rain = 0
KBO1 270300Z 24001KT 14/14 A2993 RMK A01 T01440137  RH  096%=      5-min Rain = 0
KBO1 270301Z 29003KT 14/14 A2993 RMK A01 T01440138  RH  096%=      5-min Rain = 0
KBO1 270302Z 30004KT 15/14 A2993 RMK A01 T01450139  RH  096%=      5-min Rain = 0
KBO1 270303Z 30007KT 15/14 A2994 RMK A01 T01450140  RH  097%=      5-min Rain = 0
KBO1 270304Z 30008KT 15/14 A2994 RMK A01 T01450141  RH  097%=      5-min Rain = 0
KBO1 270305Z 30008KT 15/14 A2994 RMK A01 T01450141  RH  097%=      5-min Rain = 0
KBO1 270306Z 31008KT 15/14 A2993 RMK A01 T01460141  RH  097%=      5-min Rain = 0
KBO1 270307Z 31008KT 15/14 A2993 RMK A01 T01460141  RH  096%=      5-min Rain = 0
KBO1 270308Z 32009KT 15/14 A2993 RMK A01 T01470140  RH  095%=      5-min Rain = 0
KBO1 270309Z 31008KT 15/14 A2994 RMK A01 T01490140  RH  095%=      5-min Rain = 0
KBO1 270310Z 30008KT 15/14 A2994 RMK A01 T01500140  RH  094%=      5-min Rain = 0
KBO1 270311Z 31008KT 15/14 A2995 RMK A01 T01510139  RH  093%=      5-min Rain = 0
KBO1 270312Z 29009KT 15/14 A2995 RMK A01 T01520138  RH  091%=      5-min Rain = 0
KBO1 270313Z 30006KT 16/14 A2995 RMK A01 T01560135  RH  087%=      5-min Rain = 0
KBO1 270314Z 32009KT 16/14 A2995 RMK A01 T01580136  RH  087%=      5-min Rain = 0
KBO1 270315Z 33008KT 16/14 A2995 RMK A01 T01570137  RH  088%=      5-min Rain = 0
KBO1 270316Z 33006KT 16/14 A2995 RMK A01 T01560137  RH  089%=      5-min Rain = 0
KBO1 270317Z 31005KT 16/14 A2995 RMK A01 T01560138  RH  089%=      5-min Rain = 0
KBO1 270318Z 28006KT 16/14 A2995 RMK A01 T01550137  RH  089%=      5-min Rain = 0
KBO1 270319Z 28009KT 16/14 A2996 RMK A01 T01560137  RH  089%=      5-min Rain = 0
KBO1 270320Z 28010KT 16/14 A2997 RMK A01 T01560137  RH  088%=      5-min Rain = 0
KBO1 270321Z 27012KT 16/14 A2997 RMK A01 T01570138  RH  088%=      5-min Rain = 0
KBO1 270322Z 27010KT 16/14 A2997 RMK A01 T01590138  RH  087%=      5-min Rain = 0
KBO1 270323Z 28007KT 16/14 A2997 RMK A01 T01620140  RH  087%=      5-min Rain = 0
KBO1 270324Z 27006KT 16/14 A2996 RMK A01 T01630139  RH  086%=      5-min Rain = 0
KBO1 270325Z 27003KT 16/14 A2996 RMK A01 T01640135  RH  083%=      5-min Rain = 0
KBO1 270326Z 25001KT 17/14 A2996 RMK A01 T01660135  RH  082%=      5-min Rain = 0
KBO1 270327Z 21000KT 17/13 A2996 RMK A01 T01670134  RH  081%=      5-min Rain = 0
KBO1 270328Z 27002KT 17/13 A2996 RMK A01 T01670134  RH  081%=      5-min Rain = 0
KBO1 270329Z 20003KT 17/14 A2996 RMK A01 T01680136  RH  081%=      5-min Rain = 0
KBO1 270330Z 14004KT 17/14 A2996 RMK A01 T01690138  RH  081%=      5-min Rain = 0
KBO1 270331Z 14005KT 17/14 A2996 RMK A01 T01690139  RH  082%=      5-min Rain = 0
KBO1 270332Z 16004KT 17/14 A2996 RMK A01 T01680137  RH  082%=      5-min Rain = 0
KBO1 270333Z 15006KT 17/14 A2995 RMK A01 T01680138  RH  082%=      5-min Rain = 0
KBO1 270334Z 16006KT 17/14 A2995 RMK A01 T01680139  RH  083%=      5-min Rain = 0
KBO1 270335Z 16006KT 17/14 A2995 RMK A01 T01670138  RH  083%=      5-min Rain = 0
KBO1 270336Z 15007KT 17/14 A2995 RMK A01 T01680139  RH  083%=      5-min Rain = 0
KBO1 270337Z 15010KT 17/14 A2995 RMK A01 T01680140  RH  083%=      5-min Rain = 0
KBO1 270338Z 15009KT 17/14 A2995 RMK A01 T01680142  RH  085%=      5-min Rain = 0
KBO1 270339Z 15010KT 17/14 A2995 RMK A01 T01680144  RH  086%=      5-min Rain = 0.01
KBO1 270340Z 15010KT 17/14 A2995 RMK A01 T01690144  RH  085%=      5-min Rain = 0
KBO1 270341Z 16009KT 17/15 A2995 RMK A01 T01690145  RH  085%=      5-min Rain = 0
KBO1 270342Z 16009KT 17/15 A2995 RMK A01 T01690145  RH  086%=      5-min Rain = 0
KBO1 270343Z 16009KT 17/15 A2995 RMK A01 T01680145  RH  086%=      5-min Rain = 0
KBO1 270344Z 16008KT 17/15 A2995 RMK A01 T01680146  RH  087%=      5-min Rain = 0
KBO1 270345Z 16009KT 17/15 A2995 RMK A01 T01680147  RH  087%=      5-min Rain = 0
KBO1 270346Z 15010KT 17/15 A2995 RMK A01 T01670146  RH  087%=      5-min Rain = 0
KBO1 270347Z 16010KT 17/15 A2995 RMK A01 T01680146  RH  087%=      5-min Rain = 0
KBO1 270348Z 16009KT 17/15 A2995 RMK A01 T01670147  RH  087%=      5-min Rain = 0
KBO1 270349Z 17008KT 17/15 A2995 RMK A01 T01670147  RH  088%=      5-min Rain = 0
KBO1 270350Z 15008KT 17/15 A2995 RMK A01 T01670148  RH  089%=      5-min Rain = 0
KBO1 270351Z 15011KT 17/15 A2996 RMK A01 T01670149  RH  089%=      5-min Rain = 0
KBO1 270352Z 15009KT 17/15 A2996 RMK A01 T01670148  RH  089%=      5-min Rain = 0
KBO1 270353Z 15010KT 17/15 A2996 RMK A01 T01670148  RH  089%=      5-min Rain = 0
KBO1 270354Z 15009KT 17/15 A2996 RMK A01 T01670148  RH  089%=      5-min Rain = 0
KBO1 270355Z 15010KT 17/15 A2996 RMK A01 T01660147  RH  089%=      5-min Rain = 0
KBO1 270356Z 15008KT 17/15 A2996 RMK A01 T01650147  RH  089%=      5-min Rain = 0
KBO1 270357Z 15008KT 17/15 A2996 RMK A01 T01650147  RH  089%=      5-min Rain = 0
KBO1 270358Z 15008KT 16/15 A2996 RMK A01 T01640148  RH  090%=      5-min Rain = 0
KBO1 270359Z 15008KT 16/15 A2996 RMK A01 T01640148  RH  090%=      5-min Rain = 0
KBO1 270400Z 15008KT 16/15 A2996 RMK A01 T01640148  RH  090%=      5-min Rain = 0
KBO1 270401Z 15007KT 16/15 A2996 RMK A01 T01640148  RH  091%=      5-min Rain = 0
KBO1 270402Z 15007KT 16/15 A2996 RMK A01 T01630148  RH  091%=      5-min Rain = 0
KBO1 270403Z 15005KT 16/15 A2996 RMK A01 T01640149  RH  091%=      5-min Rain = 0
KBO1 270404Z 15006KT 16/15 A2996 RMK A01 T01630149  RH  091%=      5-min Rain = 0
KBO1 270405Z 14006KT 16/15 A2996 RMK A01 T01630148  RH  091%=      5-min Rain = 0
KBO1 270406Z 13006KT 16/15 A2996 RMK A01 T01630149  RH  091%=      5-min Rain = 0
KBO1 270407Z 14006KT 16/15 A2996 RMK A01 T01630149  RH  091%=      5-min Rain = 0
KBO1 270408Z 14006KT 16/15 A2996 RMK A01 T01630149  RH  091%=      5-min Rain = 0
KBO1 270409Z 15006KT 16/15 A2996 RMK A01 T01630149  RH  091%=      5-min Rain = 0
KBO1 270410Z 15006KT 16/15 A2996 RMK A01 T01630149  RH  091%=      5-min Rain = 0
KBO1 270411Z 15006KT 16/15 A2996 RMK A01 T01630149  RH  091%=      5-min Rain = 0
KBO1 270412Z 15006KT 16/15 A2995 RMK A01 T01630149  RH  091%=      5-min Rain = 0
KBO1 270413Z 15006KT 16/15 A2995 RMK A01 T01630149  RH  092%=      5-min Rain = 0
KBO1 270414Z 14007KT 16/15 A2995 RMK A01 T01630149  RH  092%=      5-min Rain = 0
KBO1 270415Z 14007KT 16/15 A2995 RMK A01 T01630150  RH  092%=      5-min Rain = 0
KBO1 270416Z 14007KT 16/15 A2995 RMK A01 T01630150  RH  092%=      5-min Rain = 0
KBO1 270417Z 14008KT 16/15 A2995 RMK A01 T01630150  RH  092%=      5-min Rain = 0
KBO1 270418Z 14008KT 16/15 A2995 RMK A01 T01630151  RH  092%=      5-min Rain = 0
KBO1 270419Z 15009KT 16/15 A2995 RMK A01 T01630151  RH  093%=      5-min Rain = 0
KBO1 270420Z 15008KT 16/15 A2995 RMK A01 T01640152  RH  093%=      5-min Rain = 0
KBO1 270421Z 15008KT 16/15 A2995 RMK A01 T01640152  RH  093%=      5-min Rain = 0
KBO1 270422Z 14008KT 16/15 A2995 RMK A01 T01640152  RH  093%=      5-min Rain = 0
KBO1 270423Z 14007KT 16/15 A2995 RMK A01 T01640152  RH  093%=      5-min Rain = 0
KBO1 270424Z 14007KT 16/15 A2995 RMK A01 T01640153  RH  093%=      5-min Rain = 0
KBO1 270425Z 14007KT 16/15 A2995 RMK A01 T01640153  RH  093%=      5-min Rain = 0
KBO1 270426Z 14007KT 16/15 A2995 RMK A01 T01640153  RH  093%=      5-min Rain = 0
KBO1 270427Z 14007KT 16/15 A2995 RMK A01 T01640153  RH  093%=      5-min Rain = 0
KBO1 270428Z 14007KT 16/15 A2995 RMK A01 T01640153  RH  093%=      5-min Rain = 0
KBO1 270429Z 13006KT 16/15 A2995 RMK A01 T01640153  RH  093%=      5-min Rain = 0
KBO1 270430Z 14006KT 16/15 A2995 RMK A01 T01640153  RH  093%=      5-min Rain = 0
KBO1 270431Z 13006KT 16/15 A2995 RMK A01 T01640153  RH  093%=      5-min Rain = 0
KBO1 270432Z 13007KT 16/15 A2995 RMK A01 T01640153  RH  093%=      5-min Rain = 0
KBO1 270433Z 14007KT 16/15 A2995 RMK A01 T01630152  RH  093%=      5-min Rain = 0
KBO1 270434Z 14007KT 16/15 A2995 RMK A01 T01630152  RH  093%=      5-min Rain = 0
KBO1 270435Z 14006KT 16/15 A2995 RMK A01 T01630152  RH  093%=      5-min Rain = 0
KBO1 270436Z 14007KT 16/15 A2995 RMK A01 T01620152  RH  094%=      5-min Rain = 0
KBO1 270437Z 14006KT 16/15 A2995 RMK A01 T01630152  RH  094%=      5-min Rain = 0
KBO1 270438Z 14006KT 16/15 A2995 RMK A01 T01620152  RH  094%=      5-min Rain = 0
KBO1 270439Z 14006KT 16/15 A2995 RMK A01 T01630153  RH  094%=      5-min Rain = 0
KBO1 270440Z 14006KT 16/15 A2995 RMK A01 T01630153  RH  094%=      5-min Rain = 0
KBO1 270441Z 14006KT 16/15 A2995 RMK A01 T01630153  RH  094%=      5-min Rain = 0
KBO1 270442Z 14006KT 16/15 A2995 RMK A01 T01630153  RH  094%=      5-min Rain = 0
KBO1 270443Z 14006KT 16/15 A2995 RMK A01 T01620153  RH  094%=      5-min Rain = 0
KBO1 270444Z 14007KT 16/15 A2995 RMK A01 T01630154  RH  095%=      5-min Rain = 0
KBO1 270445Z 14008KT 16/15 A2994 RMK A01 T01630154  RH  095%=      5-min Rain = 0
KBO1 270446Z 13008KT 16/15 A2994 RMK A01 T01620154  RH  095%=      5-min Rain = 0
KBO1 270447Z 13008KT 16/15 A2994 RMK A01 T01620154  RH  095%=      5-min Rain = 0
KBO1 270448Z 13008KT 16/15 A2994 RMK A01 T01620154  RH  095%=      5-min Rain = 0
KBO1 270449Z 13008KT 16/16 A2994 RMK A01 T01620155  RH  095%=      5-min Rain = 0
KBO1 270450Z 13009KT 16/16 A2994 RMK A01 T01630155  RH  095%=      5-min Rain = 0
KBO1 270451Z 13008KT 16/15 A2994 RMK A01 T01620154  RH  095%=      5-min Rain = 0
KBO1 270452Z 13008KT 16/15 A2994 RMK A01 T01630154  RH  095%=      5-min Rain = 0
KBO1 270453Z 13009KT 16/16 A2994 RMK A01 T01630155  RH  095%=      5-min Rain = 0
KBO1 270454Z 14008KT 16/16 A2994 RMK A01 T01630155  RH  095%=      5-min Rain = 0
KBO1 270455Z 14008KT 16/16 A2994 RMK A01 T01630155  RH  095%=      5-min Rain = 0
KBO1 270456Z 14008KT 16/16 A2994 RMK A01 T01630155  RH  095%=      5-min Rain = 0
KBO1 270457Z 14009KT 16/16 A2994 RMK A01 T01630155  RH  095%=      5-min Rain = 0
KBO1 270458Z 14009KT 16/16 A2994 RMK A01 T01630155  RH  095%=      5-min Rain = 0
KBO1 270459Z 14011KT 16/16 A2994 RMK A01 T01630155  RH  095%=      5-min Rain = 0

Page generated in 0.0345 seconds.